| time (UTC) | temp C | wind direction | speed KPH | gust KPH | rain 1hr cm | rain 24hr cm | rain mn cm | humidity % | barometer mb |
| 20260506185307 | 10 | 202 | 11.3 | 0.0 | 0.00 | 0.25 | 0.00 | 70 | 1019.0 |
| 20260506185207 | 10 | 202 | 0.0 | 0.0 | 0.00 | 0.25 | 0.00 | 70 | 1019.0 |
| 20260506185107 | 10 | 202 | 8.0 | 0.0 | 0.00 | 0.25 | 0.00 | 70 | 1019.0 |
| 20260506185007 | 10 | 202 | 3.2 | 0.0 | 0.00 | 0.25 | 0.00 | 70 | 1019.0 |
| 20260506184907 | 10 | 202 | 0.0 | 0.0 | 0.00 | 0.25 | 0.00 | 70 | 1019.0 |
| 20260506184807 | 10 | 202 | 1.6 | 0.0 | 0.00 | 0.25 | 0.00 | 70 | 1019.0 |
| 20260506184707 | 10 | 202 | 0.0 | 0.0 | 0.00 | 0.25 | 0.00 | 70 | 1019.0 |
| 20260506184607 | 10 | 180 | 0.0 | 0.0 | 0.00 | 0.25 | 0.00 | 70 | 1019.0 |
| 20260506184507 | 11 | 180 | 0.0 | 0.0 | 0.00 | 0.25 | 0.00 | 70 | 1019.0 |
| 20260506184407 | 11 | 180 | 0.0 | 0.0 | 0.00 | 0.25 | 0.00 | 70 | 1019.0 |
| 20260506184307 | 11 | 202 | 0.0 | 0.0 | 0.00 | 0.25 | 0.00 | 70 | 1018.9 |
| 20260506184207 | 11 | 202 | 0.0 | 0.0 | 0.00 | 0.25 | 0.00 | 70 | 1018.9 |
| 20260506184107 | 11 | 180 | 0.0 | 0.0 | 0.00 | 0.25 | 0.00 | 70 | 1019.0 |
| 20260506184007 | 11 | 180 | 0.0 | 0.0 | 0.00 | 0.25 | 0.00 | 70 | 1019.0 |
| 20260506183907 | 11 | 180 | 3.2 | 0.0 | 0.00 | 0.25 | 0.00 | 70 | 1018.9 |
| 20260506183807 | 11 | 180 | 0.0 | 0.0 | 0.00 | 0.25 | 0.00 | 70 | 1018.9 |
| 20260506183707 | 11 | 180 | 0.0 | 0.0 | 0.00 | 0.25 | 0.00 | 70 | 1018.9 |
| 20260506183607 | 11 | 202 | 0.0 | 0.0 | 0.00 | 0.25 | 0.00 | 69 | 1018.9 |
| 20260506183507 | 11 | 202 | 0.0 | 0.0 | 0.00 | 0.25 | 0.00 | 69 | 1018.7 |
| 20260506183407 | 11 | 202 | 0.0 | 0.0 | 0.00 | 0.25 | 0.00 | 69 | 1018.9 |
| 20260506183307 | 11 | 202 | 4.8 | 0.0 | 0.00 | 0.25 | 0.00 | 69 | 1018.7 |
| 20260506183207 | 11 | 202 | 6.4 | 0.0 | 0.00 | 0.25 | 0.00 | 69 | 1018.9 |
| 20260506183107 | 11 | 180 | 6.4 | 0.0 | 0.00 | 0.25 | 0.00 | 69 | 1018.9 |
| 20260506183007 | 11 | 180 | 0.0 | 0.0 | 0.00 | 0.25 | 0.00 | 69 | 1018.7 |
| 20260506182907 | 11 | 180 | 0.0 | 0.0 | 0.00 | 0.25 | 0.00 | 69 | 1018.7 |
| 20260506182807 | 11 | 180 | 0.0 | 0.0 | 0.00 | 0.25 | 0.00 | 69 | 1018.7 |
| 20260506182707 | 11 | 180 | 0.0 | 0.0 | 0.00 | 0.25 | 0.00 | 69 | 1018.7 |
| 20260506182607 | 11 | 180 | 6.4 | 0.0 | 0.00 | 0.25 | 0.00 | 69 | 1018.9 |
| 20260506182507 | 11 | 180 | 0.0 | 0.0 | 0.00 | 0.25 | 0.00 | 69 | 1018.7 |
| 20260506182407 | 11 | 180 | 0.0 | 0.0 | 0.00 | 0.25 | 0.00 | 69 | 1018.9 |
| 20260506182307 | 11 | 180 | 0.0 | 0.0 | 0.00 | 0.25 | 0.00 | 69 | 1018.9 |
| 20260506182207 | 11 | 180 | 0.0 | 0.0 | 0.00 | 0.25 | 0.00 | 69 | 1018.7 |
| 20260506182107 | 11 | 180 | 0.0 | 0.0 | 0.00 | 0.25 | 0.00 | 69 | 1018.9 |
| 20260506182007 | 11 | 180 | 0.0 | 0.0 | 0.00 | 0.25 | 0.00 | 69 | 1018.7 |
| 20260506181907 | 11 | 180 | 0.0 | 0.0 | 0.00 | 0.25 | 0.00 | 69 | 1018.9 |
| 20260506181807 | 11 | 180 | 0.0 | 0.0 | 0.00 | 0.25 | 0.00 | 69 | 1018.7 |
| 20260506181707 | 11 | 180 | 0.0 | 0.0 | 0.00 | 0.25 | 0.00 | 69 | 1018.9 |
| 20260506181607 | 11 | 180 | 0.0 | 0.0 | 0.00 | 0.25 | 0.00 | 69 | 1018.7 |
| 20260506181507 | 11 | 180 | 0.0 | 0.0 | 0.00 | 0.25 | 0.00 | 69 | 1018.9 |
| 20260506181407 | 11 | 180 | 0.0 | 0.0 | 0.00 | 0.25 | 0.00 | 69 | 1018.9 |
| 20260506181307 | 11 | 180 | 0.0 | 0.0 | 0.00 | 0.25 | 0.00 | 68 | 1018.7 |
| 20260506181207 | 11 | 180 | 3.2 | 0.0 | 0.00 | 0.25 | 0.00 | 68 | 1018.7 |
| 20260506181107 | 11 | 180 | 0.0 | 0.0 | 0.00 | 0.25 | 0.00 | 68 | 1018.7 |
| 20260506181007 | 11 | 180 | 0.0 | 0.0 | 0.00 | 0.25 | 0.00 | 68 | 1018.9 |
| 20260506180907 | 11 | 180 | 0.0 | 0.0 | 0.00 | 0.25 | 0.00 | 68 | 1018.7 |
| 20260506180807 | 11 | 180 | 0.0 | 0.0 | 0.00 | 0.25 | 0.00 | 68 | 1018.7 |
| 20260506180707 | 11 | 180 | 0.0 | 0.0 | 0.00 | 0.25 | 0.00 | 68 | 1018.7 |
| 20260506180607 | 11 | 180 | 0.0 | 0.0 | 0.00 | 0.25 | 0.00 | 68 | 1018.7 |
| 20260506180507 | 11 | 180 | 0.0 | 0.0 | 0.00 | 0.25 | 0.00 | 68 | 1018.7 |
| 20260506180407 | 11 | 180 | 0.0 | 0.0 | 0.00 | 0.25 | 0.00 | 68 | 1018.7 |
| 20260506180307 | 11 | 180 | 0.0 | 0.0 | 0.00 | 0.25 | 0.00 | 68 | 1018.5 |
| 20260506180207 | 12 | 180 | 0.0 | 0.0 | 0.00 | 0.25 | 0.00 | 68 | 1018.5 |
| 20260506180107 | 12 | 180 | 11.3 | 0.0 | 0.00 | 0.25 | 0.00 | 68 | 1018.7 |
| 20260506180007 | 12 | 180 | 0.0 | 0.0 | 0.00 | 0.25 | 0.00 | 68 | 1018.5 |
| 20260506175907 | 12 | 180 | 0.0 | 0.0 | 0.00 | 0.25 | 0.00 | 68 | 1018.5 |
| 20260506175807 | 12 | 180 | 0.0 | 0.0 | 0.00 | 0.25 | 0.00 | 68 | 1018.5 |
| 20260506175707 | 12 | 180 | 0.0 | 0.0 | 0.00 | 0.25 | 0.00 | 68 | 1018.5 |
| 20260506175607 | 12 | 180 | 0.0 | 0.0 | 0.00 | 0.25 | 0.00 | 68 | 1018.5 |
| 20260506175507 | 12 | 180 | 0.0 | 0.0 | 0.00 | 0.25 | 0.00 | 68 | 1018.5 |
| 20260506175407 | 12 | 180 | 0.0 | 0.0 | 0.00 | 0.25 | 0.00 | 68 | 1018.5 |
| 20260506175307 | 12 | 202 | 0.0 | 0.0 | 0.00 | 0.25 | 0.00 | 68 | 1018.5 |
| 20260506175207 | 12 | 202 | 0.0 | 0.0 | 0.00 | 0.25 | 0.00 | 68 | 1018.5 |
| 20260506175107 | 12 | 202 | 14.5 | 0.0 | 0.00 | 0.25 | 0.00 | 68 | 1018.5 |
| 20260506175007 | 12 | 202 | 6.4 | 0.0 | 0.00 | 0.25 | 0.00 | 68 | 1018.4 |
| 20260506174907 | 12 | 202 | 4.8 | 0.0 | 0.00 | 0.25 | 0.00 | 68 | 1018.4 |
| 20260506174807 | 12 | 202 | 0.0 | 0.0 | 0.00 | 0.25 | 0.00 | 68 | 1018.4 |
| 20260506174707 | 12 | 202 | 3.2 | 0.0 | 0.00 | 0.25 | 0.00 | 68 | 1018.5 |
| 20260506174607 | 12 | 202 | 0.0 | 0.0 | 0.00 | 0.25 | 0.00 | 68 | 1018.5 |
| 20260506174507 | 12 | 180 | 3.2 | 0.0 | 0.00 | 0.25 | 0.00 | 68 | 1018.7 |
| 20260506174407 | 12 | 202 | 9.7 | 0.0 | 0.00 | 0.25 | 0.00 | 68 | 1018.5 |
| 20260506174307 | 12 | 202 | 0.0 | 0.0 | 0.00 | 0.25 | 0.00 | 68 | 1018.5 |
| 20260506174207 | 12 | 202 | 0.0 | 0.0 | 0.00 | 0.25 | 0.00 | 68 | 1018.5 |
| 20260506174107 | 12 | 157 | 11.3 | 0.0 | 0.00 | 0.25 | 0.00 | 68 | 1018.5 |
| 20260506174007 | 12 | 202 | 0.0 | 0.0 | 0.00 | 0.25 | 0.00 | 68 | 1018.5 |
| 20260506173907 | 12 | 202 | 8.0 | 0.0 | 0.00 | 0.25 | 0.00 | 68 | 1018.5 |
| 20260506173807 | 12 | 180 | 3.2 | 0.0 | 0.00 | 0.25 | 0.00 | 68 | 1018.5 |
| 20260506173707 | 12 | 157 | 4.8 | 0.0 | 0.00 | 0.25 | 0.00 | 68 | 1018.5 |
| 20260506173607 | 12 | 180 | 9.7 | 0.0 | 0.00 | 0.25 | 0.00 | 68 | 1018.5 |
| 20260506173507 | 12 | 180 | 0.0 | 0.0 | 0.00 | 0.25 | 0.00 | 67 | 1018.5 |
| 20260506173407 | 12 | 180 | 8.0 | 0.0 | 0.00 | 0.25 | 0.00 | 67 | 1018.5 |
| 20260506173307 | 12 | 157 | 14.5 | 0.0 | 0.00 | 0.25 | 0.00 | 67 | 1018.5 |
| 20260506173207 | 12 | 180 | 12.9 | 0.0 | 0.00 | 0.25 | 0.00 | 67 | 1018.5 |
| 20260506173107 | 12 | 202 | 16.1 | 0.0 | 0.00 | 0.25 | 0.00 | 67 | 1018.4 |
| 20260506173007 | 12 | 180 | 9.7 | 0.0 | 0.00 | 0.25 | 0.00 | 67 | 1018.4 |
| 20260506172907 | 12 | 180 | 0.0 | 0.0 | 0.00 | 0.25 | 0.00 | 67 | 1018.4 |
| 20260506172807 | 12 | 180 | 14.5 | 0.0 | 0.00 | 0.25 | 0.00 | 67 | 1018.4 |
| 20260506172707 | 12 | 202 | 14.5 | 0.0 | 0.00 | 0.25 | 0.00 | 67 | 1018.2 |
| 20260506172607 | 12 | 180 | 14.5 | 0.0 | 0.00 | 0.25 | 0.00 | 67 | 1018.4 |
| 20260506172507 | 12 | 180 | 6.4 | 0.0 | 0.00 | 0.25 | 0.00 | 67 | 1018.2 |
| 20260506172407 | 12 | 157 | 3.2 | 0.0 | 0.00 | 0.25 | 0.00 | 67 | 1018.2 |
| 20260506172307 | 12 | 180 | 6.4 | 0.0 | 0.00 | 0.25 | 0.00 | 67 | 1018.2 |
| 20260506172207 | 12 | 180 | 0.0 | 0.0 | 0.00 | 0.25 | 0.00 | 67 | 1018.2 |
| 20260506172107 | 12 | 202 | 6.4 | 0.0 | 0.00 | 0.25 | 0.00 | 67 | 1018.2 |
| 20260506172007 | 12 | 180 | 8.0 | 0.0 | 0.00 | 0.25 | 0.00 | 67 | 1018.2 |
| 20260506171907 | 12 | 180 | 4.8 | 0.0 | 0.00 | 0.25 | 0.00 | 67 | 1018.2 |
| 20260506171807 | 12 | 202 | 17.7 | 0.0 | 0.00 | 0.25 | 0.00 | 67 | 1018.2 |
| 20260506171707 | 12 | 180 | 3.2 | 0.0 | 0.00 | 0.25 | 0.00 | 67 | 1018.2 |
| 20260506171607 | 12 | 157 | 12.9 | 0.0 | 0.00 | 0.25 | 0.00 | 67 | 1018.2 |
| 20260506171507 | 12 | 180 | 11.3 | 0.0 | 0.00 | 0.25 | 0.00 | 67 | 1018.2 |
| 20260506171407 | 12 | 202 | 16.1 | 0.0 | 0.00 | 0.25 | 0.00 | 67 | 1018.2 |
| 20260506171307 | 13 | 202 | 0.0 | 0.0 | 0.00 | 0.25 | 0.00 | 67 | 1018.2 |
| 20260506171207 | 13 | 180 | 294.5 | 0.0 | 0.00 | 0.25 | 0.00 | 67 | 1018.0 |
| 20260506171107 | 13 | 202 | 12.9 | 0.0 | 0.00 | 0.25 | 0.00 | 66 | 1018.0 |
| 20260506171007 | 13 | 180 | 1.6 | 0.0 | 0.00 | 0.25 | 0.00 | 66 | 1018.0 |
| 20260506170907 | 13 | 180 | 3.2 | 0.0 | 0.00 | 0.25 | 0.00 | 66 | 1018.0 |
| 20260506170807 | 13 | 180 | 8.0 | 0.0 | 0.00 | 0.25 | 0.00 | 66 | 1018.0 |
| 20260506170707 | 13 | 202 | 4.8 | 0.0 | 0.00 | 0.25 | 0.00 | 67 | 1018.0 |
| 20260506170607 | 13 | 180 | 4.8 | 0.0 | 0.00 | 0.25 | 0.00 | 67 | 1018.0 |
| 20260506170507 | 13 | 180 | 1.6 | 0.0 | 0.00 | 0.25 | 0.00 | 67 | 1017.9 |
| 20260506170407 | 13 | 180 | 0.0 | 0.0 | 0.00 | 0.25 | 0.00 | 67 | 1017.9 |
| 20260506170307 | 13 | 180 | 0.0 | 0.0 | 0.00 | 0.25 | 0.00 | 67 | 1017.7 |
| 20260506170207 | 13 | 180 | 6.4 | 0.0 | 0.00 | 0.25 | 0.00 | 67 | 1017.9 |
| 20260506170107 | 13 | 180 | 0.0 | 0.0 | 0.00 | 0.25 | 0.00 | 67 | 1017.7 |
| 20260506170007 | 13 | 225 | 19.3 | 0.0 | 0.00 | 0.25 | 0.00 | 67 | 1017.7 |
| 20260506165907 | 13 | 180 | 4.8 | 0.0 | 0.00 | 0.25 | 0.00 | 67 | 1017.7 |
| 20260506165807 | 13 | 180 | 0.0 | 0.0 | 0.00 | 0.25 | 0.00 | 67 | 1018.0 |
| 20260506165707 | 13 | 180 | 0.0 | 0.0 | 0.00 | 0.25 | 0.00 | 67 | 1018.0 |
| 20260506165607 | 13 | 202 | 14.5 | 0.0 | 0.00 | 0.25 | 0.00 | 67 | 1018.0 |
| 20260506165507 | 13 | 180 | 1.6 | 0.0 | 0.00 | 0.25 | 0.00 | 67 | 1018.0 |
| 20260506165407 | 13 | 180 | 3.2 | 0.0 | 0.00 | 0.25 | 0.00 | 67 | 1017.9 |
| 20260506165307 | 13 | 180 | 0.0 | 0.0 | 0.00 | 0.25 | 0.00 | 67 | 1018.0 |
| 20260506165207 | 13 | 202 | 3.2 | 0.0 | 0.00 | 0.25 | 0.00 | 67 | 1017.9 |
| 20260506165107 | 13 | 180 | 11.3 | 0.0 | 0.00 | 0.25 | 0.00 | 67 | 1017.9 |
| 20260506165007 | 13 | 202 | 3.2 | 0.0 | 0.00 | 0.25 | 0.00 | 67 | 1017.7 |
| 20260506164907 | 13 | 180 | 0.0 | 0.0 | 0.00 | 0.25 | 0.00 | 67 | 1017.7 |
| 20260506164807 | 13 | 180 | 1.6 | 0.0 | 0.00 | 0.25 | 0.00 | 67 | 1017.7 |
| 20260506164707 | 13 | 180 | 14.5 | 0.0 | 0.00 | 0.25 | 0.00 | 67 | 1017.9 |
| 20260506164607 | 13 | 202 | 0.0 | 0.0 | 0.00 | 0.25 | 0.00 | 67 | 1017.9 |
| 20260506164507 | 13 | 202 | 0.0 | 0.0 | 0.00 | 0.25 | 0.00 | 67 | 1017.7 |
| 20260506164407 | 13 | 202 | 0.0 | 0.0 | 0.00 | 0.25 | 0.00 | 67 | 1017.5 |
| 20260506164307 | 13 | 225 | 6.4 | 0.0 | 0.00 | 0.25 | 0.00 | 67 | 1017.5 |
| 20260506164207 | 13 | 202 | 0.0 | 0.0 | 0.00 | 0.25 | 0.00 | 67 | 1017.5 |
| 20260506164107 | 13 | 202 | 20.9 | 0.0 | 0.00 | 0.25 | 0.00 | 67 | 1017.5 |
| 20260506164007 | 13 | 180 | 0.0 | 0.0 | 0.00 | 0.25 | 0.00 | 67 | 1017.5 |
| 20260506163907 | 13 | 180 | 6.4 | 0.0 | 0.00 | 0.25 | 0.00 | 67 | 1017.7 |
| 20260506163807 | 13 | 180 | 3.2 | 0.0 | 0.00 | 0.25 | 0.00 | 67 | 1017.7 |
| 20260506163707 | 13 | 225 | 0.0 | 0.0 | 0.00 | 0.25 | 0.00 | 67 | 1017.5 |
| 20260506163607 | 13 | 202 | 6.4 | 0.0 | 0.00 | 0.25 | 0.00 | 67 | 1017.5 |
| 20260506163507 | 13 | 202 | 0.0 | 0.0 | 0.00 | 0.25 | 0.00 | 67 | 1017.5 |
| 20260506163407 | 14 | 202 | 0.0 | 0.0 | 0.00 | 0.25 | 0.00 | 67 | 1017.5 |
| 20260506163307 | 14 | 202 | 8.0 | 0.0 | 0.00 | 0.25 | 0.00 | 67 | 1017.5 |
| 20260506163207 | 14 | 225 | 11.3 | 0.0 | 0.00 | 0.25 | 0.00 | 67 | 1017.5 |
| 20260506163107 | 14 | 202 | 3.2 | 0.0 | 0.00 | 0.25 | 0.00 | 67 | 1017.7 |
| 20260506163007 | 14 | 202 | 0.0 | 0.0 | 0.00 | 0.25 | 0.00 | 67 | 1017.5 |
| 20260506162907 | 14 | 202 | 0.0 | 0.0 | 0.00 | 0.25 | 0.00 | 67 | 1017.7 |
| 20260506162807 | 14 | 202 | 0.0 | 0.0 | 0.00 | 0.25 | 0.00 | 67 | 1017.5 |
| 20260506162707 | 14 | 202 | 6.4 | 0.0 | 0.00 | 0.25 | 0.00 | 67 | 1017.5 |
| 20260506162607 | 14 | 225 | 6.4 | 0.0 | 0.00 | 0.25 | 0.00 | 67 | 1017.5 |
| 20260506162507 | 14 | 225 | 3.2 | 0.0 | 0.00 | 0.25 | 0.00 | 67 | 1017.7 |
| 20260506162407 | 14 | 225 | 6.4 | 0.0 | 0.00 | 0.25 | 0.00 | 67 | 1017.5 |
| 20260506162307 | 14 | 202 | 0.0 | 0.0 | 0.00 | 0.25 | 0.00 | 67 | 1017.7 |
| 20260506162207 | 14 | 180 | 12.9 | 0.0 | 0.00 | 0.25 | 0.00 | 67 | 1017.5 |
| 20260506162107 | 14 | 180 | 8.0 | 0.0 | 0.00 | 0.25 | 0.00 | 67 | 1017.5 |
| 20260506162007 | 14 | 225 | 4.8 | 0.0 | 0.00 | 0.25 | 0.00 | 67 | 1017.5 |
| 20260506161907 | 14 | 225 | 16.1 | 0.0 | 0.00 | 0.25 | 0.00 | 67 | 1017.5 |
| 20260506161807 | 14 | 225 | 0.0 | 0.0 | 0.00 | 0.25 | 0.00 | 67 | 1017.5 |
| 20260506161707 | 14 | 202 | 0.0 | 0.0 | 0.00 | 0.25 | 0.00 | 67 | 1017.5 |
| 20260506161607 | 14 | 225 | 14.5 | 0.0 | 0.00 | 0.25 | 0.00 | 67 | 1017.7 |
| 20260506161507 | 14 | 180 | 8.0 | 0.0 | 0.00 | 0.25 | 0.00 | 67 | 1017.5 |
| 20260506161407 | 14 | 202 | 9.7 | 0.0 | 0.00 | 0.25 | 0.00 | 67 | 1017.7 |
| 20260506161307 | 14 | 225 | 0.0 | 0.0 | 0.00 | 0.25 | 0.00 | 67 | 1017.7 |
| 20260506161207 | 14 | 180 | 8.0 | 0.0 | 0.00 | 0.25 | 0.00 | 67 | 1017.7 |
| 20260506161107 | 14 | 180 | 20.9 | 0.0 | 0.00 | 0.25 | 0.00 | 67 | 1017.5 |
| 20260506161007 | 14 | 225 | 12.9 | 0.0 | 0.00 | 0.25 | 0.00 | 68 | 1017.5 |
| 20260506160907 | 14 | 247 | 11.3 | 0.0 | 0.00 | 0.25 | 0.00 | 68 | 1017.5 |
| 20260506160807 | 14 | 247 | 19.3 | 0.0 | 0.00 | 0.25 | 0.00 | 68 | 1017.7 |
| 20260506160707 | 14 | 225 | 14.5 | 0.0 | 0.00 | 0.25 | 0.00 | 68 | 1017.7 |
| 20260506160607 | 13 | 225 | 14.5 | 0.0 | 0.00 | 0.25 | 0.00 | 68 | 1017.7 |
| 20260506160507 | 13 | 202 | 9.7 | 0.0 | 0.00 | 0.25 | 0.00 | 68 | 1017.7 |
| 20260506160407 | 13 | 202 | 4.8 | 0.0 | 0.00 | 0.25 | 0.00 | 68 | 1017.7 |
| 20260506160307 | 13 | 225 | 19.3 | 0.0 | 0.00 | 0.25 | 0.00 | 68 | 1017.7 |
| 20260506160207 | 13 | 202 | 19.3 | 0.0 | 0.00 | 0.25 | 0.00 | 67 | 1017.7 |
| 20260506160107 | 13 | 202 | 4.8 | 0.0 | 0.00 | 0.25 | 0.00 | 67 | 1017.7 |
| 20260506160007 | 13 | 225 | 17.7 | 0.0 | 0.05 | 0.25 | 0.00 | 67 | 1017.7 |
| 20260506155907 | 13 | 225 | 0.0 | 0.0 | 0.05 | 0.25 | 0.00 | 67 | 1017.9 |
| 20260506155807 | 13 | 180 | 8.0 | 0.0 | 0.05 | 0.25 | 0.00 | 67 | 1017.9 |
| 20260506155707 | 13 | 180 | 0.0 | 0.0 | 0.05 | 0.25 | 0.00 | 67 | 1017.9 |
| 20260506155607 | 13 | 202 | 17.7 | 0.0 | 0.05 | 0.25 | 0.00 | 67 | 1017.9 |
| 20260506155507 | 13 | 202 | 14.5 | 0.0 | 0.05 | 0.25 | 0.00 | 67 | 1017.9 |
| 20260506155407 | 13 | 180 | 0.0 | 0.0 | 0.05 | 0.25 | 0.00 | 67 | 1017.9 |
| 20260506155307 | 13 | 225 | 8.0 | 0.0 | 0.05 | 0.25 | 0.00 | 67 | 1017.9 |
| 20260506155207 | 13 | 180 | 0.0 | 0.0 | 0.05 | 0.25 | 0.00 | 67 | 1018.0 |
| 20260506155107 | 13 | 180 | 0.0 | 0.0 | 0.05 | 0.25 | 0.00 | 67 | 1018.0 |
| 20260506155007 | 13 | 180 | 1.6 | 0.0 | 0.05 | 0.25 | 0.00 | 67 | 1018.0 |
| 20260506154907 | 13 | 180 | 3.2 | 0.0 | 0.05 | 0.25 | 0.00 | 67 | 1018.0 |
| 20260506154807 | 13 | 180 | 0.0 | 0.0 | 0.05 | 0.25 | 0.00 | 67 | 1018.0 |
| 20260506154707 | 13 | 180 | 0.0 | 0.0 | 0.05 | 0.25 | 0.00 | 67 | 1018.0 |
| 20260506154607 | 13 | 180 | 4.8 | 0.0 | 0.05 | 0.25 | 0.00 | 67 | 1018.0 |
| 20260506154507 | 13 | 157 | 0.0 | 0.0 | 0.05 | 0.25 | 0.00 | 67 | 1018.0 |
| 20260506154407 | 13 | 180 | 0.0 | 0.0 | 0.10 | 0.25 | 0.00 | 67 | 1017.9 |
| 20260506154307 | 13 | 180 | 4.8 | 0.0 | 0.10 | 0.25 | 0.00 | 67 | 1018.0 |
| 20260506154207 | 13 | 180 | 14.5 | 0.0 | 0.10 | 0.25 | 0.00 | 67 | 1018.0 |
| 20260506154107 | 13 | 157 | 11.3 | 0.0 | 0.10 | 0.25 | 0.00 | 67 | 1018.0 |
| 20260506154007 | 13 | 157 | 6.4 | 0.0 | 0.10 | 0.25 | 0.00 | 67 | 1018.0 |
| 20260506153907 | 12 | 180 | 20.9 | 0.0 | 0.10 | 0.25 | 0.00 | 67 | 1018.0 |
| 20260506153807 | 12 | 157 | 8.0 | 0.0 | 0.10 | 0.25 | 0.00 | 67 | 1018.0 |
| 20260506153707 | 12 | 157 | 4.8 | 0.0 | 0.10 | 0.25 | 0.00 | 67 | 1018.0 |
| 20260506153607 | 12 | 180 | 16.1 | 0.0 | 0.10 | 0.25 | 0.00 | 67 | 1018.0 |
| 20260506153507 | 12 | 157 | 4.8 | 0.0 | 0.10 | 0.25 | 0.00 | 67 | 1018.0 |
| 20260506153407 | 12 | 180 | 11.3 | 0.0 | 0.10 | 0.25 | 0.00 | 67 | 1018.0 |
| 20260506153307 | 12 | 135 | 9.7 | 0.0 | 0.10 | 0.25 | 0.00 | 67 | 1018.0 |
| 20260506153207 | 12 | 157 | 0.0 | 0.0 | 0.15 | 0.25 | 0.00 | 67 | 1018.0 |
| 20260506153107 | 12 | 157 | 0.0 | 0.0 | 0.15 | 0.25 | 0.00 | 67 | 1018.0 |
| 20260506153006 | 12 | 157 | 0.0 | 0.0 | 0.15 | 0.25 | 0.00 | 67 | 1018.0 |
| 20260506152907 | 12 | 157 | 0.0 | 0.0 | 0.15 | 0.25 | 0.00 | 67 | 1017.9 |
| 20260506152807 | 12 | 157 | 0.0 | 0.0 | 0.15 | 0.25 | 0.00 | 67 | 1018.0 |
| 20260506152707 | 12 | 180 | 4.8 | 0.0 | 0.15 | 0.25 | 0.00 | 67 | 1018.0 |
| 20260506152607 | 12 | 157 | 0.0 | 0.0 | 0.15 | 0.25 | 0.00 | 67 | 1018.0 |
| 20260506152507 | 12 | 157 | 0.0 | 0.0 | 0.15 | 0.25 | 0.00 | 67 | 1018.0 |
| 20260506152407 | 12 | 180 | 1.6 | 0.0 | 0.15 | 0.25 | 0.00 | 67 | 1018.0 |
| 20260506152307 | 12 | 157 | 0.0 | 0.0 | 0.15 | 0.25 | 0.00 | 67 | 1017.9 |
| 20260506152207 | 12 | 180 | 16.1 | 0.0 | 0.15 | 0.25 | 0.00 | 67 | 1018.0 |
| 20260506152107 | 12 | 157 | 0.0 | 0.0 | 0.15 | 0.25 | 0.00 | 67 | 1018.0 |
| 20260506152007 | 12 | 157 | 0.0 | 0.0 | 0.15 | 0.25 | 0.00 | 67 | 1018.0 |
| 20260506151907 | 12 | 180 | 0.0 | 0.0 | 0.15 | 0.25 | 0.00 | 67 | 1018.0 |
| 20260506151807 | 12 | 180 | 0.0 | 0.0 | 0.15 | 0.25 | 0.00 | 67 | 1017.9 |
| 20260506151707 | 12 | 157 | 0.0 | 0.0 | 0.15 | 0.25 | 0.00 | 67 | 1018.0 |
| 20260506151607 | 12 | 157 | 3.2 | 0.0 | 0.20 | 0.25 | 0.00 | 67 | 1017.9 |
| 20260506151507 | 12 | 157 | 3.2 | 0.0 | 0.20 | 0.25 | 0.00 | 67 | 1018.0 |
| 20260506151407 | 12 | 180 | 0.0 | 0.0 | 0.20 | 0.25 | 0.00 | 67 | 1017.9 |
| 20260506151306 | 12 | 180 | 0.0 | 0.0 | 0.20 | 0.25 | 0.00 | 67 | 1018.0 |
| 20260506151207 | 12 | 202 | 0.0 | 0.0 | 0.20 | 0.25 | 0.00 | 67 | 1017.9 |
| 20260506151106 | 12 | 180 | 0.0 | 0.0 | 0.20 | 0.25 | 0.00 | 67 | 1017.7 |
| 20260506151006 | 12 | 202 | 0.0 | 0.0 | 0.20 | 0.25 | 0.00 | 67 | 1017.9 |
| 20260506150907 | 12 | 225 | 0.0 | 0.0 | 0.20 | 0.25 | 0.00 | 67 | 1017.7 |
| 20260506150807 | 12 | 225 | 9.7 | 0.0 | 0.20 | 0.25 | 0.00 | 67 | 1017.7 |
| 20260506150706 | 12 | 225 | 3.2 | 0.0 | 0.20 | 0.25 | 0.00 | 67 | 1017.7 |
| 20260506150606 | 12 | 202 | 0.0 | 0.0 | 0.20 | 0.25 | 0.00 | 67 | 1017.7 |
| 20260506150507 | 12 | 225 | 17.7 | 0.0 | 0.20 | 0.25 | 0.00 | 66 | 1017.7 |
| 20260506150406 | 12 | 225 | 0.0 | 0.0 | 0.25 | 0.25 | 0.00 | 66 | 1017.7 |
| 20260506150307 | 12 | 225 | 22.5 | 0.0 | 0.25 | 0.25 | 0.00 | 66 | 1017.7 |
| 20260506150206 | 12 | 225 | 6.4 | 0.0 | 0.20 | 0.20 | 0.00 | 66 | 1017.7 |
| 20260506150106 | 12 | 247 | 0.0 | 0.0 | 0.20 | 0.20 | 0.00 | 66 | 1017.7 |
| 20260506150006 | 12 | 225 | 3.2 | 0.0 | 0.20 | 0.20 | 0.00 | 66 | 1017.7 |
| 20260506145907 | 12 | 247 | 0.0 | 0.0 | 0.20 | 0.20 | 0.00 | 66 | 1017.7 |
| 20260506145807 | 12 | 247 | 0.0 | 0.0 | 0.20 | 0.20 | 0.00 | 66 | 1017.7 |
| 20260506145706 | 12 | 247 | 0.0 | 0.0 | 0.20 | 0.20 | 0.00 | 66 | 1017.5 |
| 20260506145606 | 12 | 247 | 0.0 | 0.0 | 0.20 | 0.20 | 0.00 | 66 | 1017.7 |
| 20260506145506 | 12 | 247 | 0.0 | 0.0 | 0.20 | 0.20 | 0.00 | 66 | 1017.7 |
| 20260506145406 | 12 | 225 | 0.0 | 0.0 | 0.20 | 0.20 | 0.00 | 66 | 1017.5 |
| 20260506145307 | 12 | 225 | 0.0 | 0.0 | 0.20 | 0.20 | 0.00 | 66 | 1017.7 |
| 20260506145206 | 12 | 202 | 0.0 | 0.0 | 0.20 | 0.20 | 0.00 | 66 | 1017.7 |
| 20260506145106 | 12 | 225 | 0.0 | 0.0 | 0.20 | 0.20 | 0.00 | 66 | 1017.5 |
| 20260506145006 | 12 | 225 | 0.0 | 0.0 | 0.20 | 0.20 | 0.00 | 66 | 1017.7 |
| 20260506144906 | 12 | 202 | 0.0 | 0.0 | 0.20 | 0.20 | 0.00 | 66 | 1017.5 |
| 20260506144806 | 12 | 202 | 0.0 | 0.0 | 0.20 | 0.20 | 0.00 | 66 | 1017.5 |
| 20260506144706 | 12 | 202 | 0.0 | 0.0 | 0.15 | 0.15 | 0.00 | 66 | 1017.7 |
| 20260506144606 | 12 | 202 | 0.0 | 0.0 | 0.15 | 0.15 | 0.00 | 66 | 1017.7 |
| 20260506144506 | 12 | 225 | 8.0 | 0.0 | 0.15 | 0.15 | 0.00 | 66 | 1017.7 |
| 20260506144406 | 12 | 202 | 0.0 | 0.0 | 0.15 | 0.15 | 0.00 | 66 | 1017.7 |
| 20260506144306 | 12 | 202 | 0.0 | 0.0 | 0.15 | 0.15 | 0.00 | 66 | 1017.7 |
| 20260506144206 | 12 | 247 | 16.1 | 0.0 | 0.15 | 0.15 | 0.00 | 66 | 1017.7 |
| 20260506144106 | 12 | 202 | 19.3 | 0.0 | 0.15 | 0.15 | 0.00 | 66 | 1017.7 |
| 20260506144006 | 12 | 202 | 8.0 | 0.0 | 0.15 | 0.15 | 0.00 | 66 | 1017.7 |
| 20260506143906 | 12 | 180 | 9.7 | 0.0 | 0.15 | 0.15 | 0.00 | 66 | 1017.7 |
| 20260506143806 | 12 | 180 | 4.8 | 0.0 | 0.15 | 0.15 | 0.00 | 65 | 1017.7 |
| 20260506143706 | 12 | 202 | 6.4 | 0.0 | 0.15 | 0.15 | 0.00 | 65 | 1017.7 |
| 20260506143606 | 12 | 202 | 19.3 | 0.0 | 0.15 | 0.15 | 0.00 | 65 | 1017.7 |
| 20260506143506 | 12 | 202 | 8.0 | 0.0 | 0.15 | 0.15 | 0.00 | 65 | 1017.7 |
| 20260506143406 | 12 | 202 | 4.8 | 0.0 | 0.15 | 0.15 | 0.00 | 65 | 1017.7 |
| 20260506143306 | 12 | 225 | 16.1 | 0.0 | 0.10 | 0.15 | 0.00 | 65 | 1017.5 |
| 20260506143206 | 12 | 180 | 0.0 | 0.0 | 0.10 | 0.10 | 0.00 | 65 | 1017.5 |
| 20260506143106 | 12 | 202 | 16.1 | 0.0 | 0.10 | 0.10 | 0.00 | 65 | 1017.7 |
| 20260506143006 | 12 | 202 | 11.3 | 0.0 | 0.10 | 0.10 | 0.00 | 65 | 1017.5 |
| 20260506142906 | 12 | 202 | 17.7 | 0.0 | 0.10 | 0.10 | 0.00 | 65 | 1017.7 |
| 20260506142806 | 12 | 202 | 4.8 | 0.0 | 0.10 | 0.10 | 0.00 | 65 | 1017.7 |
| 20260506142706 | 12 | 180 | 0.0 | 0.0 | 0.10 | 0.10 | 0.00 | 65 | 1017.7 |
| 20260506142606 | 12 | 180 | 0.0 | 0.0 | 0.10 | 0.10 | 0.00 | 65 | 1017.9 |
| 20260506142506 | 12 | 180 | 22.5 | 0.0 | 0.10 | 0.10 | 0.00 | 64 | 1017.7 |
| 20260506142406 | 12 | 180 | 9.7 | 0.0 | 0.10 | 0.10 | 0.00 | 64 | 1017.7 |
| 20260506142306 | 12 | 180 | 6.4 | 0.0 | 0.10 | 0.10 | 0.00 | 64 | 1017.7 |
| 20260506142206 | 12 | 180 | 14.5 | 0.0 | 0.10 | 0.10 | 0.00 | 64 | 1017.7 |
| 20260506142106 | 13 | 180 | 0.0 | 0.0 | 0.10 | 0.10 | 0.00 | 64 | 1017.9 |
| 20260506142006 | 13 | 202 | 24.1 | 0.0 | 0.10 | 0.10 | 0.00 | 64 | 1017.7 |
| 20260506141906 | 13 | 157 | 19.3 | 0.0 | 0.05 | 0.05 | 0.00 | 64 | 1017.7 |
| 20260506141806 | 13 | 202 | 11.3 | 0.0 | 0.05 | 0.05 | 0.00 | 64 | 1017.7 |
| 20260506141706 | 13 | 202 | 16.1 | 0.0 | 0.05 | 0.05 | 0.00 | 64 | 1017.7 |
| 20260506141606 | 13 | 202 | 3.2 | 0.0 | 0.05 | 0.05 | 0.00 | 64 | 1017.7 |
| 20260506141506 | 13 | 202 | 22.5 | 0.0 | 0.05 | 0.05 | 0.00 | 64 | 1017.5 |
| 20260506141406 | 13 | 180 | 17.7 | 0.0 | 0.05 | 0.05 | 0.00 | 63 | 1017.7 |
| 20260506141306 | 13 | 180 | 25.7 | 0.0 | 0.05 | 0.05 | 0.00 | 63 | 1017.5 |
| 20260506141206 | 13 | 202 | 19.3 | 0.0 | 0.05 | 0.05 | 0.00 | 63 | 1017.5 |
| 20260506141106 | 13 | 157 | 30.6 | 0.0 | 0.05 | 0.05 | 0.00 | 63 | 1017.5 |
| 20260506141006 | 13 | 202 | 27.4 | 0.0 | 0.05 | 0.05 | 0.00 | 63 | 1017.5 |
| 20260506140906 | 13 | 202 | 33.8 | 0.0 | 0.05 | 0.05 | 0.00 | 63 | 1017.4 |
| 20260506140806 | 13 | 202 | 16.1 | 0.0 | 0.05 | 0.05 | 0.00 | 63 | 1017.4 |
| 20260506140706 | 13 | 202 | 41.8 | 0.0 | 0.05 | 0.05 | 0.00 | 63 | 1017.5 |
| 20260506140606 | 14 | 202 | 43.5 | 0.0 | 0.00 | 0.00 | 0.00 | 63 | 1017.2 |
| 20260506140506 | 14 | 202 | 25.7 | 0.0 | 0.00 | 0.00 | 0.00 | 62 | 1017.2 |
| 20260506140406 | 14 | 157 | 22.5 | 0.0 | 0.00 | 0.00 | 0.00 | 62 | 1017.4 |
| 20260506140306 | 14 | 180 | 30.6 | 0.0 | 0.00 | 0.00 | 0.00 | 62 | 1017.2 |
| 20260506140206 | 14 | 202 | 66.0 | 0.0 | 0.00 | 0.00 | 0.00 | 62 | 1017.0 |
| 20260506140106 | 14 | 202 | 29.0 | 0.0 | 0.00 | 0.00 | 0.00 | 62 | 1017.2 |
| 20260506140006 | 15 | 180 | 48.3 | 0.0 | 0.00 | 0.00 | 0.00 | 62 | 1017.2 |
| 20260506135906 | 15 | 180 | 25.7 | 0.0 | 0.00 | 0.00 | 0.00 | 62 | 1017.2 |
| 20260506135806 | 15 | 202 | 17.7 | 0.0 | 0.00 | 0.00 | 0.00 | 61 | 1017.0 |
| 20260506135706 | 15 | 157 | 14.5 | 0.0 | 0.00 | 0.00 | 0.00 | 61 | 1017.0 |
| 20260506135606 | 15 | 135 | 29.0 | 0.0 | 0.00 | 0.00 | 0.00 | 61 | 1017.0 |
| 20260506135506 | 15 | 202 | 4.8 | 0.0 | 0.00 | 0.00 | 0.00 | 61 | 1017.0 |
| 20260506135406 | 15 | 247 | 43.5 | 0.0 | 0.00 | 0.00 | 0.00 | 61 | 1017.0 |
| 20260506135306 | 15 | 225 | 16.1 | 0.0 | 0.00 | 0.00 | 0.00 | 61 | 1016.9 |
| 20260506135206 | 15 | 202 | 20.9 | 0.0 | 0.00 | 0.00 | 0.00 | 60 | 1016.7 |
| 20260506135106 | 15 | 225 | 25.7 | 0.0 | 0.00 | 0.00 | 0.00 | 60 | 1016.7 |
| 20260506135006 | 15 | 180 | 19.3 | 0.0 | 0.00 | 0.00 | 0.00 | 60 | 1016.7 |
| 20260506134906 | 15 | 225 | 29.0 | 0.0 | 0.00 | 0.00 | 0.00 | 60 | 1016.7 |
| 20260506134806 | 15 | 225 | 25.7 | 0.0 | 0.00 | 0.00 | 0.00 | 60 | 1016.7 |
| 20260506134706 | 15 | 202 | 35.4 | 0.0 | 0.00 | 0.00 | 0.00 | 60 | 1016.7 |
| 20260506134606 | 15 | 180 | 45.1 | 0.0 | 0.00 | 0.00 | 0.00 | 60 | 1016.7 |
| 20260506134506 | 15 | 225 | 43.5 | 0.0 | 0.00 | 0.00 | 0.00 | 59 | 1016.5 |
| 20260506134406 | 16 | 180 | 16.1 | 0.0 | 0.00 | 0.00 | 0.00 | 59 | 1016.5 |
| 20260506134306 | 16 | 180 | 3.2 | 0.0 | 0.00 | 0.00 | 0.00 | 59 | 1016.7 |
| 20260506134206 | 16 | 202 | 17.7 | 0.0 | 0.00 | 0.00 | 0.00 | 59 | 1016.5 |
| 20260506134106 | 16 | 225 | 19.3 | 0.0 | 0.00 | 0.00 | 0.00 | 59 | 1016.5 |
| 20260506134006 | 16 | 225 | 20.9 | 0.0 | 0.00 | 0.00 | 0.00 | 59 | 1016.5 |
| 20260506133906 | 16 | 202 | 29.0 | 0.0 | 0.00 | 0.00 | 0.00 | 58 | 1016.5 |
| 20260506133806 | 16 | 202 | 20.9 | 0.0 | 0.00 | 0.00 | 0.00 | 58 | 1016.5 |
| 20260506133706 | 16 | 202 | 25.7 | 0.0 | 0.00 | 0.00 | 0.00 | 58 | 1016.4 |
| 20260506133606 | 16 | 180 | 22.5 | 0.0 | 0.00 | 0.00 | 0.00 | 57 | 1016.4 |
| 20260506133506 | 16 | 202 | 19.3 | 0.0 | 0.00 | 0.00 | 0.00 | 57 | 1016.4 |
| 20260506133406 | 16 | 180 | 24.1 | 0.0 | 0.00 | 0.00 | 0.00 | 57 | 1016.5 |
| 20260506133306 | 17 | 202 | 29.0 | 0.0 | 0.00 | 0.00 | 0.00 | 57 | 1016.5 |
| 20260506133206 | 17 | 202 | 17.7 | 0.0 | 0.00 | 0.00 | 0.00 | 56 | 1016.4 |
| 20260506133106 | 17 | 202 | 30.6 | 0.0 | 0.00 | 0.00 | 0.00 | 56 | 1016.2 |
| 20260506133006 | 17 | 180 | 29.0 | 0.0 | 0.00 | 0.00 | 0.00 | 57 | 1016.4 |
| 20260506132906 | 17 | 180 | 17.7 | 0.0 | 0.00 | 0.00 | 0.00 | 56 | 1016.4 |
| 20260506132806 | 17 | 180 | 25.7 | 0.0 | 0.00 | 0.00 | 0.00 | 56 | 1016.4 |
| 20260506132706 | 17 | 202 | 17.7 | 0.0 | 0.00 | 0.00 | 0.00 | 56 | 1016.2 |
| 20260506132606 | 17 | 202 | 17.7 | 0.0 | 0.00 | 0.00 | 0.00 | 56 | 1016.2 |
| 20260506132506 | 17 | 180 | 16.1 | 0.0 | 0.00 | 0.00 | 0.00 | 56 | 1016.2 |
| 20260506132406 | 18 | 180 | 9.7 | 0.0 | 0.00 | 0.00 | 0.00 | 55 | 1016.2 |
| 20260506132307 | 18 | 225 | 20.9 | 0.0 | 0.00 | 0.00 | 0.00 | 55 | 1016.2 |
| 20260506132206 | 18 | 180 | 35.4 | 0.0 | 0.00 | 0.00 | 0.00 | 55 | 1016.2 |
| 20260506132106 | 18 | 180 | 29.0 | 0.0 | 0.00 | 0.00 | 0.00 | 55 | 1016.0 |
| 20260506132006 | 18 | 180 | 12.9 | 0.0 | 0.00 | 0.00 | 0.00 | 55 | 1016.0 |
| 20260506131906 | 18 | 180 | 9.7 | 0.0 | 0.00 | 0.00 | 0.00 | 54 | 1016.2 |
| 20260506131806 | 18 | 180 | 24.1 | 0.0 | 0.00 | 0.00 | 0.00 | 54 | 1016.0 |
| 20260506131706 | 18 | 202 | 11.3 | 0.0 | 0.00 | 0.00 | 0.00 | 54 | 1016.0 |
| 20260506131606 | 18 | 202 | 11.3 | 0.0 | 0.00 | 0.00 | 0.00 | 54 | 1016.0 |
| 20260506131506 | 18 | 180 | 12.9 | 0.0 | 0.00 | 0.00 | 0.00 | 54 | 1016.0 |
| 20260506131406 | 18 | 202 | 16.1 | 0.0 | 0.00 | 0.00 | 0.00 | 54 | 1016.0 |
| 20260506131306 | 19 | 202 | 8.0 | 0.0 | 0.00 | 0.00 | 0.00 | 53 | 1015.9 |
| 20260506131206 | 19 | 180 | 22.5 | 0.0 | 0.00 | 0.00 | 0.00 | 53 | 1015.9 |
| 20260506131106 | 19 | 202 | 16.1 | 0.0 | 0.00 | 0.00 | 0.00 | 53 | 1015.9 |
| 20260506131006 | 19 | 180 | 16.1 | 0.0 | 0.00 | 0.00 | 0.00 | 53 | 1015.9 |
| 20260506130906 | 19 | 180 | 16.1 | 0.0 | 0.00 | 0.00 | 0.00 | 53 | 1015.7 |
| 20260506130806 | 19 | 202 | 16.1 | 0.0 | 0.00 | 0.00 | 0.00 | 53 | 1015.7 |
| 20260506130706 | 20 | 202 | 12.9 | 0.0 | 0.00 | 0.00 | 0.00 | 52 | 1015.7 |
| 20260506130606 | 20 | 180 | 11.3 | 0.0 | 0.00 | 0.00 | 0.00 | 52 | 1015.7 |
| 20260506130506 | 20 | 180 | 14.5 | 0.0 | 0.00 | 0.00 | 0.00 | 52 | 1015.7 |
| 20260506130406 | 20 | 202 | 16.1 | 0.0 | 0.00 | 0.00 | 0.00 | 52 | 1015.5 |
| 20260506130306 | 20 | 180 | 9.7 | 0.0 | 0.00 | 0.00 | 0.00 | 52 | 1015.5 |
| 20260506130206 | 20 | 202 | 0.0 | 0.0 | 0.00 | 0.00 | 0.00 | 52 | 1015.5 |
| 20260506130106 | 20 | 202 | 3.2 | 0.0 | 0.00 | 0.00 | 0.00 | 52 | 1015.5 |
| 20260506130006 | 20 | 225 | 8.0 | 0.0 | 0.00 | 0.00 | 0.00 | 52 | 1015.5 |
| 20260506125906 | 20 | 180 | 19.3 | 0.0 | 0.00 | 0.00 | 0.00 | 52 | 1015.5 |
| 20260506125806 | 20 | 202 | 16.1 | 0.0 | 0.00 | 0.00 | 0.00 | 51 | 1015.5 |
| 20260506125706 | 20 | 202 | 11.3 | 0.0 | 0.00 | 0.00 | 0.00 | 51 | 1015.2 |
| 20260506125606 | 20 | 180 | 3.2 | 0.0 | 0.00 | 0.00 | 0.00 | 52 | 1015.4 |
| 20260506125506 | 20 | 225 | 20.9 | 0.0 | 0.00 | 0.00 | 0.00 | 52 | 1015.4 |
| 20260506125406 | 20 | 225 | 17.7 | 0.0 | 0.00 | 0.00 | 0.00 | 52 | 1015.5 |
| 20260506125306 | 20 | 225 | 27.4 | 0.0 | 0.00 | 0.00 | 0.00 | 52 | 1015.5 |
| 20260506125206 | 20 | 202 | 11.3 | 0.0 | 0.00 | 0.00 | 0.00 | 51 | 1015.5 |
| 20260506125106 | 20 | 202 | 19.3 | 0.0 | 0.00 | 0.00 | 0.00 | 51 | 1015.5 |
| 20260506125006 | 20 | 180 | 3.2 | 0.0 | 0.00 | 0.00 | 0.00 | 51 | 1015.4 |
| 20260506124906 | 20 | 157 | 3.2 | 0.0 | 0.00 | 0.00 | 0.00 | 51 | 1015.5 |
| 20260506124806 | 20 | 180 | 0.0 | 0.0 | 0.00 | 0.00 | 0.00 | 51 | 1015.5 |
| 20260506124706 | 20 | 202 | 0.0 | 0.0 | 0.00 | 0.00 | 0.00 | 51 | 1015.4 |
| 20260506124606 | 21 | 225 | 17.7 | 0.0 | 0.00 | 0.00 | 0.00 | 51 | 1015.4 |
| 20260506124506 | 21 | 247 | 16.1 | 0.0 | 0.00 | 0.00 | 0.00 | 51 | 1015.4 |
| 20260506124406 | 21 | 180 | 0.0 | 0.0 | 0.00 | 0.00 | 0.00 | 51 | 1015.4 |
| 20260506124306 | 21 | 180 | 0.0 | 0.0 | 0.00 | 0.00 | 0.00 | 51 | 1015.5 |
| 20260506124206 | 21 | 202 | 0.0 | 0.0 | 0.00 | 0.00 | 0.00 | 51 | 1015.4 |
| 20260506124106 | 21 | 180 | 8.0 | 0.0 | 0.00 | 0.00 | 0.00 | 50 | 1015.2 |
| 20260506124006 | 21 | 202 | 14.5 | 0.0 | 0.00 | 0.00 | 0.00 | 50 | 1015.4 |
| 20260506123906 | 21 | 202 | 4.8 | 0.0 | 0.00 | 0.00 | 0.00 | 50 | 1015.4 |
| 20260506123806 | 21 | 202 | 0.0 | 0.0 | 0.00 | 0.00 | 0.00 | 50 | 1015.2 |
| 20260506123706 | 21 | 180 | 9.7 | 0.0 | 0.00 | 0.00 | 0.00 | 50 | 1015.4 |
| 20260506123606 | 21 | 202 | 8.0 | 0.0 | 0.00 | 0.00 | 0.00 | 50 | 1015.2 |
| 20260506123506 | 21 | 225 | 22.5 | 0.0 | 0.00 | 0.00 | 0.00 | 50 | 1015.2 |
| 20260506123406 | 21 | 202 | 12.9 | 0.0 | 0.00 | 0.00 | 0.00 | 50 | 1015.2 |
| 20260506123306 | 22 | 225 | 19.3 | 0.0 | 0.00 | 0.00 | 0.00 | 50 | 1015.2 |
| 20260506123206 | 22 | 202 | 0.0 | 0.0 | 0.00 | 0.00 | 0.00 | 50 | 1015.2 |
| 20260506123106 | 22 | 202 | 8.0 | 0.0 | 0.00 | 0.00 | 0.00 | 50 | 1015.2 |
| 20260506123006 | 22 | 202 | 17.7 | 0.0 | 0.00 | 0.00 | 0.00 | 50 | 1015.4 |
| 20260506122906 | 22 | 225 | 8.0 | 0.0 | 0.00 | 0.00 | 0.00 | 50 | 1015.2 |
| 20260506122806 | 22 | 202 | 17.7 | 0.0 | 0.00 | 0.00 | 0.00 | 49 | 1015.2 |
| 20260506122706 | 22 | 225 | 8.0 | 0.0 | 0.00 | 0.00 | 0.00 | 49 | 1015.4 |
| 20260506122606 | 22 | 225 | 0.0 | 0.0 | 0.00 | 0.00 | 0.00 | 49 | 1015.2 |
| 20260506122506 | 22 | 202 | 11.3 | 0.0 | 0.00 | 0.00 | 0.00 | 49 | 1015.2 |
| 20260506122406 | 22 | 202 | 3.2 | 0.0 | 0.00 | 0.00 | 0.00 | 49 | 1015.2 |
| 20260506122306 | 22 | 202 | 0.0 | 0.0 | 0.00 | 0.00 | 0.00 | 49 | 1015.2 |
| 20260506122206 | 23 | 202 | 4.8 | 0.0 | 0.00 | 0.00 | 0.00 | 49 | 1015.2 |
| 20260506122106 | 23 | 202 | 16.1 | 0.0 | 0.00 | 0.00 | 0.00 | 49 | 1015.2 |
| 20260506122006 | 23 | 202 | 6.4 | 0.0 | 0.00 | 0.00 | 0.00 | 49 | 1015.2 |
| 20260506121906 | 23 | 202 | 8.0 | 0.0 | 0.00 | 0.00 | 0.00 | 49 | 1015.2 |
| 20260506121806 | 23 | 202 | 8.0 | 0.0 | 0.00 | 0.00 | 0.00 | 49 | 1015.2 |
| 20260506121706 | 23 | 247 | 6.4 | 0.0 | 0.00 | 0.00 | 0.00 | 49 | 1015.2 |
| 20260506121606 | 23 | 247 | 14.5 | 0.0 | 0.00 | 0.00 | 0.00 | 49 | 1015.2 |
| 20260506121506 | 23 | 202 | 6.4 | 0.0 | 0.00 | 0.00 | 0.00 | 48 | 1015.2 |
| 20260506121406 | 23 | 180 | 11.3 | 0.0 | 0.00 | 0.00 | 0.00 | 49 | 1015.2 |
| 20260506121306 | 23 | 180 | 0.0 | 0.0 | 0.00 | 0.00 | 0.00 | 49 | 1015.2 |
| 20260506121206 | 23 | 157 | 0.0 | 0.0 | 0.00 | 0.00 | 0.00 | 49 | 1015.2 |
| 20260506121106 | 23 | 135 | 9.7 | 0.0 | 0.00 | 0.00 | 0.00 | 49 | 1015.2 |
| 20260506121006 | 23 | 157 | 0.0 | 0.0 | 0.00 | 0.00 | 0.00 | 49 | 1015.2 |
| 20260506120906 | 23 | 157 | 0.0 | 0.0 | 0.00 | 0.00 | 0.00 | 49 | 1015.2 |
| 20260506120806 | 23 | 157 | 0.0 | 0.0 | 0.00 | 0.00 | 0.00 | 49 | 1015.2 |
| 20260506120706 | 23 | 157 | 0.0 | 0.0 | 0.00 | 0.00 | 0.00 | 49 | 1015.2 |
| 20260506120606 | 23 | 180 | 9.7 | 0.0 | 0.00 | 0.00 | 0.00 | 49 | 1015.2 |
| 20260506120506 | 23 | 180 | 17.7 | 0.0 | 0.00 | 0.00 | 0.00 | 49 | 1015.0 |
| 20260506120406 | 23 | 202 | 0.0 | 0.0 | 0.00 | 0.00 | 0.00 | 49 | 1015.0 |
| 20260506120306 | 23 | 180 | 0.0 | 0.0 | 0.00 | 0.00 | 0.00 | 49 | 1015.2 |
| 20260506120206 | 23 | 180 | 0.0 | 0.0 | 0.00 | 0.00 | 0.00 | 49 | 1015.2 |
| 20260506120106 | 23 | 180 | 0.0 | 0.0 | 0.00 | 0.00 | 0.00 | 50 | 1015.2 |
| 20260506120006 | 23 | 202 | 0.0 | 0.0 | 0.00 | 0.00 | 0.00 | 50 | 1015.0 |
| 20260506115906 | 23 | 180 | 1.6 | 0.0 | 0.00 | 0.00 | 0.00 | 50 | 1015.0 |
| 20260506115806 | 23 | 180 | 4.8 | 0.0 | 0.00 | 0.00 | 0.00 | 50 | 1015.0 |
| 20260506115706 | 23 | 202 | 8.0 | 0.0 | 0.00 | 0.00 | 0.00 | 50 | 1015.0 |
| 20260506115606 | 23 | 202 | 4.8 | 0.0 | 0.00 | 0.00 | 0.00 | 50 | 1015.2 |
| 20260506115506 | 23 | 180 | 0.0 | 0.0 | 0.00 | 0.00 | 0.00 | 50 | 1015.2 |
| 20260506115406 | 23 | 180 | 0.0 | 0.0 | 0.00 | 0.00 | 0.00 | 50 | 1015.2 |
| 20260506115307 | 23 | 180 | 0.0 | 0.0 | 0.00 | 0.00 | 0.00 | 50 | 1015.2 |
| 20260506115206 | 23 | 202 | 0.0 | 0.0 | 0.00 | 0.00 | 0.00 | 50 | 1015.2 |
| 20260506115106 | 23 | 202 | 4.8 | 0.0 | 0.00 | 0.00 | 0.00 | 50 | 1015.2 |
| 20260506115006 | 23 | 180 | 0.0 | 0.0 | 0.00 | 0.00 | 0.00 | 51 | 1015.0 |
| 20260506114906 | 23 | 180 | 4.8 | 0.0 | 0.00 | 0.00 | 0.00 | 51 | 1015.2 |
| 20260506114806 | 23 | 157 | 0.0 | 0.0 | 0.00 | 0.00 | 0.00 | 51 | 1015.0 |
| 20260506114706 | 23 | 180 | 9.7 | 0.0 | 0.00 | 0.00 | 0.00 | 51 | 1015.0 |
| 20260506114606 | 23 | 202 | 19.3 | 0.0 | 0.00 | 0.00 | 0.00 | 51 | 1015.0 |
| 20260506114506 | 23 | 157 | 8.0 | 0.0 | 0.00 | 0.00 | 0.00 | 51 | 1015.0 |
| 20260506114406 | 23 | 180 | 0.0 | 0.0 | 0.00 | 0.00 | 0.00 | 51 | 1015.2 |
| 20260506114306 | 23 | 180 | 294.5 | 0.0 | 0.00 | 0.00 | 0.00 | 51 | 1015.0 |
| 20260506114206 | 23 | 180 | 0.0 | 0.0 | 0.00 | 0.00 | 0.00 | 51 | 1015.0 |
| 20260506114106 | 23 | 157 | 0.0 | 0.0 | 0.00 | 0.00 | 0.00 | 51 | 1015.0 |
| 20260506114006 | 23 | 157 | 0.0 | 0.0 | 0.00 | 0.00 | 0.00 | 51 | 1015.0 |
| 20260506113906 | 23 | 157 | 0.0 | 0.0 | 0.00 | 0.00 | 0.00 | 51 | 1015.2 |
| 20260506113806 | 23 | 135 | 0.0 | 0.0 | 0.00 | 0.00 | 0.00 | 51 | 1015.0 |
| 20260506113706 | 23 | 135 | 0.0 | 0.0 | 0.00 | 0.00 | 0.00 | 51 | 1015.0 |
| 20260506113606 | 23 | 157 | 0.0 | 0.0 | 0.00 | 0.00 | 0.00 | 52 | 1015.0 |
| 20260506113506 | 23 | 157 | 0.0 | 0.0 | 0.00 | 0.00 | 0.00 | 52 | 1015.0 |
| 20260506113406 | 22 | 135 | 0.0 | 0.0 | 0.00 | 0.00 | 0.00 | 52 | 1015.2 |
| 20260506113306 | 22 | 157 | 0.0 | 0.0 | 0.00 | 0.00 | 0.00 | 52 | 1015.0 |
| 20260506113206 | 22 | 157 | 0.0 | 0.0 | 0.00 | 0.00 | 0.00 | 52 | 1015.2 |
| 20260506113106 | 22 | 135 | 0.0 | 0.0 | 0.00 | 0.00 | 0.00 | 52 | 1015.2 |
| 20260506113006 | 22 | 157 | 0.0 | 0.0 | 0.00 | 0.00 | 0.00 | 52 | 1015.2 |
| 20260506112906 | 22 | 180 | 0.0 | 0.0 | 0.00 | 0.00 | 0.00 | 52 | 1015.2 |
| 20260506112806 | 22 | 180 | 0.0 | 0.0 | 0.00 | 0.00 | 0.00 | 52 | 1015.2 |
| 20260506112706 | 22 | 157 | 0.0 | 0.0 | 0.00 | 0.00 | 0.00 | 52 | 1015.2 |
| 20260506112606 | 22 | 157 | 0.0 | 0.0 | 0.00 | 0.00 | 0.00 | 52 | 1015.2 |
| 20260506112506 | 22 | 180 | 1.6 | 0.0 | 0.00 | 0.00 | 0.00 | 52 | 1015.2 |
| 20260506112406 | 22 | 180 | 0.0 | 0.0 | 0.00 | 0.00 | 0.00 | 52 | 1015.2 |
| 20260506112306 | 22 | 180 | 0.0 | 0.0 | 0.00 | 0.00 | 0.00 | 53 | 1015.2 |
| 20260506112206 | 22 | 157 | 0.0 | 0.0 | 0.00 | 0.00 | 0.00 | 53 | 1015.2 |
| 20260506112106 | 22 | 157 | 14.5 | 0.0 | 0.00 | 0.00 | 0.00 | 53 | 1015.4 |
| 20260506112006 | 22 | 157 | 8.0 | 0.0 | 0.00 | 0.00 | 0.00 | 53 | 1015.2 |
| 20260506111906 | 22 | 157 | 0.0 | 0.0 | 0.00 | 0.00 | 0.00 | 53 | 1015.2 |
| 20260506111806 | 22 | 157 | 0.0 | 0.0 | 0.00 | 0.00 | 0.00 | 53 | 1015.2 |
| 20260506111706 | 22 | 157 | 0.0 | 0.0 | 0.00 | 0.00 | 0.00 | 53 | 1015.2 |
| 20260506111606 | 22 | 157 | 0.0 | 0.0 | 0.00 | 0.00 | 0.00 | 53 | 1015.2 |
| 20260506111506 | 22 | 157 | 0.0 | 0.0 | 0.00 | 0.00 | 0.00 | 53 | 1015.2 |
| 20260506111406 | 22 | 157 | 0.0 | 0.0 | 0.00 | 0.00 | 0.00 | 53 | 1015.2 |
| 20260506111306 | 22 | 135 | 0.0 | 0.0 | 0.00 | 0.00 | 0.00 | 53 | 1015.2 |
| 20260506111206 | 22 | 157 | 0.0 | 0.0 | 0.00 | 0.00 | 0.00 | 53 | 1015.2 |
| 20260506111106 | 22 | 180 | 0.0 | 0.0 | 0.00 | 0.00 | 0.00 | 53 | 1015.2 |
| 20260506111006 | 22 | 180 | 0.0 | 0.0 | 0.00 | 0.00 | 0.00 | 53 | 1015.2 |
| 20260506110906 | 22 | 180 | 0.0 | 0.0 | 0.00 | 0.00 | 0.00 | 53 | 1015.2 |
| 20260506110806 | 22 | 180 | 0.0 | 0.0 | 0.00 | 0.00 | 0.00 | 53 | 1015.2 |
| 20260506110706 | 22 | 180 | 0.0 | 0.0 | 0.00 | 0.00 | 0.00 | 54 | 1015.2 |
| 20260506110606 | 22 | 180 | 0.0 | 0.0 | 0.00 | 0.00 | 0.00 | 54 | 1015.2 |
| 20260506110506 | 22 | 180 | 0.0 | 0.0 | 0.00 | 0.00 | 0.00 | 54 | 1015.2 |
| 20260506110406 | 22 | 157 | 0.0 | 0.0 | 0.00 | 0.00 | 0.00 | 54 | 1015.2 |
| 20260506110306 | 22 | 180 | 0.0 | 0.0 | 0.00 | 0.00 | 0.00 | 54 | 1015.2 |
| 20260506110206 | 22 | 157 | 0.0 | 0.0 | 0.00 | 0.00 | 0.00 | 54 | 1015.4 |
| 20260506110106 | 22 | 180 | 0.0 | 0.0 | 0.00 | 0.00 | 0.00 | 55 | 1015.5 |
| 20260506110006 | 22 | 180 | 0.0 | 0.0 | 0.00 | 0.05 | 0.00 | 55 | 1015.5 |
| 20260506105906 | 22 | 180 | 0.0 | 0.0 | 0.00 | 0.05 | 0.00 | 55 | 1015.4 |
| 20260506105806 | 22 | 180 | 0.0 | 0.0 | 0.00 | 0.05 | 0.00 | 55 | 1015.5 |
| 20260506105706 | 22 | 180 | 0.0 | 0.0 | 0.00 | 0.05 | 0.00 | 55 | 1015.4 |
| 20260506105606 | 22 | 180 | 0.0 | 0.0 | 0.00 | 0.05 | 0.00 | 55 | 1015.4 |
| 20260506105506 | 22 | 180 | 0.0 | 0.0 | 0.00 | 0.05 | 0.00 | 55 | 1015.5 |
| 20260506105406 | 22 | 180 | 0.0 | 0.0 | 0.00 | 0.05 | 0.00 | 55 | 1015.5 |
| 20260506105306 | 22 | 180 | 0.0 | 0.0 | 0.00 | 0.05 | 0.00 | 55 | 1015.5 |
| 20260506105206 | 22 | 180 | 0.0 | 0.0 | 0.00 | 0.05 | 0.00 | 55 | 1015.5 |
| 20260506105106 | 22 | 180 | 0.0 | 0.0 | 0.00 | 0.05 | 0.00 | 56 | 1015.5 |
| 20260506105006 | 22 | 180 | 0.0 | 0.0 | 0.00 | 0.05 | 0.00 | 56 | 1015.7 |
| 20260506104906 | 22 | 180 | 0.0 | 0.0 | 0.00 | 0.05 | 0.00 | 56 | 1015.7 |
| 20260506104806 | 22 | 180 | 0.0 | 0.0 | 0.00 | 0.05 | 0.00 | 56 | 1015.7 |
| 20260506104706 | 22 | 180 | 0.0 | 0.0 | 0.00 | 0.05 | 0.00 | 56 | 1015.7 |
| 20260506104606 | 22 | 180 | 0.0 | 0.0 | 0.00 | 0.05 | 0.00 | 56 | 1015.5 |
| 20260506104506 | 22 | 180 | 0.0 | 0.0 | 0.00 | 0.05 | 0.00 | 56 | 1015.5 |
| 20260506104406 | 22 | 180 | 0.0 | 0.0 | 0.00 | 0.05 | 0.00 | 56 | 1015.7 |
| 20260506104306 | 22 | 180 | 0.0 | 0.0 | 0.00 | 0.05 | 0.00 | 56 | 1015.5 |
| 20260506104206 | 22 | 180 | 0.0 | 0.0 | 0.00 | 0.05 | 0.00 | 56 | 1015.7 |
| 20260506104106 | 22 | 180 | 0.0 | 0.0 | 0.00 | 0.05 | 0.00 | 56 | 1015.5 |
| 20260506104006 | 22 | 180 | 0.0 | 0.0 | 0.00 | 0.05 | 0.00 | 56 | 1015.5 |
| 20260506103906 | 22 | 180 | 0.0 | 0.0 | 0.00 | 0.05 | 0.00 | 56 | 1015.7 |
| 20260506103806 | 22 | 180 | 0.0 | 0.0 | 0.00 | 0.05 | 0.00 | 57 | 1015.7 |
| 20260506103706 | 22 | 225 | 0.0 | 0.0 | 0.00 | 0.05 | 0.00 | 57 | 1015.7 |
| 20260506103606 | 22 | 225 | 0.0 | 0.0 | 0.00 | 0.05 | 0.00 | 57 | 1015.7 |
| 20260506103506 | 22 | 202 | 0.0 | 0.0 | 0.00 | 0.05 | 0.00 | 57 | 1015.7 |
| 20260506103406 | 22 | 202 | 0.0 | 0.0 | 0.00 | 0.05 | 0.00 | 57 | 1015.9 |
| 20260506103306 | 22 | 180 | 0.0 | 0.0 | 0.00 | 0.05 | 0.00 | 57 | 1015.9 |
| 20260506103206 | 22 | 180 | 0.0 | 0.0 | 0.00 | 0.05 | 0.00 | 58 | 1015.9 |
| 20260506103106 | 22 | 180 | 0.0 | 0.0 | 0.00 | 0.05 | 0.00 | 58 | 1015.7 |
| 20260506103006 | 22 | 180 | 0.0 | 0.0 | 0.00 | 0.05 | 0.00 | 58 | 1015.7 |
| 20260506102906 | 22 | 202 | 0.0 | 0.0 | 0.00 | 0.05 | 0.00 | 58 | 1015.7 |
| 20260506102806 | 22 | 202 | 0.0 | 0.0 | 0.00 | 0.05 | 0.00 | 58 | 1015.7 |
| 20260506102706 | 22 | 202 | 0.0 | 0.0 | 0.00 | 0.05 | 0.00 | 58 | 1015.7 |
| 20260506102606 | 22 | 180 | 0.0 | 0.0 | 0.00 | 0.05 | 0.00 | 58 | 1015.7 |
| 20260506102506 | 22 | 202 | 0.0 | 0.0 | 0.00 | 0.05 | 0.00 | 58 | 1015.7 |
| 20260506102406 | 22 | 202 | 0.0 | 0.0 | 0.00 | 0.05 | 0.00 | 59 | 1015.7 |
| 20260506102306 | 21 | 202 | 0.0 | 0.0 | 0.00 | 0.05 | 0.00 | 59 | 1015.7 |
| 20260506102206 | 21 | 202 | 0.0 | 0.0 | 0.00 | 0.05 | 0.00 | 59 | 1015.7 |
| 20260506102106 | 21 | 202 | 0.0 | 0.0 | 0.00 | 0.05 | 0.00 | 59 | 1015.7 |
| 20260506102006 | 21 | 180 | 0.0 | 0.0 | 0.00 | 0.05 | 0.00 | 59 | 1015.7 |
| 20260506101906 | 21 | 180 | 0.0 | 0.0 | 0.00 | 0.05 | 0.00 | 59 | 1015.7 |
| 20260506101806 | 21 | 202 | 0.0 | 0.0 | 0.00 | 0.05 | 0.00 | 60 | 1015.9 |
| 20260506101706 | 21 | 202 | 0.0 | 0.0 | 0.00 | 0.05 | 0.00 | 60 | 1015.7 |
| 20260506101606 | 21 | 202 | 0.0 | 0.0 | 0.00 | 0.05 | 0.00 | 60 | 1015.7 |
| 20260506101506 | 21 | 247 | 0.0 | 0.0 | 0.00 | 0.05 | 0.00 | 60 | 1015.7 |
| 20260506101406 | 21 | 202 | 0.0 | 0.0 | 0.00 | 0.05 | 0.00 | 60 | 1015.7 |
| 20260506101306 | 21 | 202 | 0.0 | 0.0 | 0.00 | 0.05 | 0.00 | 60 | 1015.7 |
| 20260506101206 | 21 | 202 | 0.0 | 0.0 | 0.00 | 0.05 | 0.00 | 60 | 1015.9 |
| 20260506101106 | 21 | 202 | 0.0 | 0.0 | 0.00 | 0.05 | 0.00 | 60 | 1015.7 |
| 20260506101006 | 21 | 202 | 0.0 | 0.0 | 0.00 | 0.05 | 0.00 | 60 | 1015.9 |
| 20260506100906 | 21 | 202 | 0.0 | 0.0 | 0.00 | 0.05 | 0.00 | 61 | 1015.9 |
| 20260506100806 | 20 | 180 | 0.0 | 0.0 | 0.00 | 0.05 | 0.00 | 61 | 1015.9 |
| 20260506100706 | 20 | 202 | 0.0 | 0.0 | 0.00 | 0.05 | 0.00 | 61 | 1015.9 |
| 20260506100606 | 20 | 202 | 0.0 | 0.0 | 0.00 | 0.05 | 0.00 | 61 | 1016.0 |
| 20260506100506 | 20 | 225 | 0.0 | 0.0 | 0.00 | 0.05 | 0.00 | 61 | 1016.0 |
| 20260506100406 | 20 | 202 | 0.0 | 0.0 | 0.00 | 0.05 | 0.00 | 61 | 1015.9 |
| 20260506100306 | 20 | 202 | 0.0 | 0.0 | 0.00 | 0.05 | 0.00 | 61 | 1015.9 |
| 20260506100206 | 20 | 202 | 0.0 | 0.0 | 0.00 | 0.05 | 0.00 | 61 | 1016.0 |
| 20260506100106 | 20 | 180 | 0.0 | 0.0 | 0.00 | 0.05 | 0.00 | 61 | 1016.0 |
| 20260506100006 | 20 | 180 | 0.0 | 0.0 | 0.00 | 0.05 | 0.00 | 61 | 1016.0 |
| 20260506095906 | 20 | 180 | 0.0 | 0.0 | 0.00 | 0.05 | 0.00 | 61 | 1016.0 |
| 20260506095806 | 20 | 180 | 0.0 | 0.0 | 0.00 | 0.05 | 0.00 | 62 | 1016.0 |
| 20260506095706 | 20 | 202 | 0.0 | 0.0 | 0.00 | 0.05 | 0.00 | 61 | 1016.0 |
| 20260506095606 | 20 | 180 | 0.0 | 0.0 | 0.00 | 0.05 | 0.00 | 62 | 1016.0 |
| 20260506095506 | 20 | 202 | 0.0 | 0.0 | 0.00 | 0.05 | 0.00 | 62 | 1016.0 |
| 20260506095406 | 20 | 202 | 0.0 | 0.0 | 0.00 | 0.05 | 0.00 | 62 | 1015.9 |
| 20260506095306 | 20 | 202 | 1.6 | 0.0 | 0.00 | 0.05 | 0.00 | 62 | 1015.9 |
| 20260506095206 | 20 | 202 | 0.0 | 0.0 | 0.00 | 0.05 | 0.00 | 62 | 1016.0 |
| 20260506095106 | 20 | 202 | 0.0 | 0.0 | 0.00 | 0.05 | 0.00 | 62 | 1016.0 |
| 20260506095006 | 20 | 202 | 0.0 | 0.0 | 0.00 | 0.05 | 0.00 | 62 | 1015.9 |
| 20260506094906 | 20 | 202 | 0.0 | 0.0 | 0.00 | 0.05 | 0.00 | 62 | 1016.0 |
| 20260506094806 | 20 | 202 | 0.0 | 0.0 | 0.00 | 0.05 | 0.00 | 62 | 1015.9 |
| 20260506094706 | 20 | 202 | 0.0 | 0.0 | 0.00 | 0.05 | 0.00 | 62 | 1015.9 |
| 20260506094606 | 20 | 202 | 0.0 | 0.0 | 0.00 | 0.05 | 0.00 | 62 | 1016.0 |
| 20260506094506 | 20 | 180 | 0.0 | 0.0 | 0.00 | 0.05 | 0.00 | 62 | 1016.0 |
| 20260506094406 | 20 | 180 | 0.0 | 0.0 | 0.00 | 0.05 | 0.00 | 62 | 1016.0 |
| 20260506094306 | 20 | 180 | 0.0 | 0.0 | 0.00 | 0.05 | 0.00 | 62 | 1015.9 |
| 20260506094206 | 20 | 180 | 0.0 | 0.0 | 0.00 | 0.05 | 0.00 | 62 | 1015.9 |
| 20260506094106 | 20 | 180 | 0.0 | 0.0 | 0.00 | 0.05 | 0.00 | 62 | 1015.9 |
| 20260506094006 | 20 | 180 | 0.0 | 0.0 | 0.00 | 0.05 | 0.00 | 62 | 1016.0 |
| 20260506093906 | 20 | 180 | 0.0 | 0.0 | 0.00 | 0.05 | 0.00 | 62 | 1016.0 |
| 20260506093806 | 20 | 180 | 0.0 | 0.0 | 0.00 | 0.05 | 0.00 | 62 | 1016.0 |
| 20260506093706 | 20 | 180 | 0.0 | 0.0 | 0.00 | 0.05 | 0.00 | 62 | 1016.0 |
| 20260506093606 | 20 | 202 | 0.0 | 0.0 | 0.00 | 0.05 | 0.00 | 62 | 1016.0 |
| 20260506093506 | 20 | 180 | 0.0 | 0.0 | 0.00 | 0.05 | 0.00 | 62 | 1016.0 |
| 20260506093406 | 20 | 180 | 0.0 | 0.0 | 0.00 | 0.05 | 0.00 | 62 | 1016.0 |
| 20260506093306 | 20 | 180 | 0.0 | 0.0 | 0.00 | 0.05 | 0.00 | 62 | 1016.0 |
| 20260506093206 | 20 | 180 | 0.0 | 0.0 | 0.00 | 0.05 | 0.00 | 62 | 1016.0 |
| 20260506093106 | 20 | 180 | 4.8 | 0.0 | 0.00 | 0.05 | 0.00 | 63 | 1016.0 |
| 20260506093006 | 20 | 180 | 3.2 | 0.0 | 0.00 | 0.05 | 0.00 | 63 | 1016.0 |
| 20260506092906 | 20 | 202 | 0.0 | 0.0 | 0.00 | 0.05 | 0.00 | 63 | 1016.0 |
| 20260506092806 | 20 | 202 | 3.2 | 0.0 | 0.00 | 0.05 | 0.00 | 63 | 1016.0 |
| 20260506092706 | 20 | 202 | 3.2 | 0.0 | 0.00 | 0.05 | 0.00 | 63 | 1016.0 |
| 20260506092606 | 20 | 202 | 0.0 | 0.0 | 0.00 | 0.05 | 0.00 | 63 | 1016.2 |
| 20260506092506 | 20 | 180 | 0.0 | 0.0 | 0.00 | 0.05 | 0.00 | 63 | 1016.0 |
| 20260506092406 | 20 | 202 | 0.0 | 0.0 | 0.00 | 0.05 | 0.00 | 63 | 1016.0 |
| 20260506092306 | 20 | 202 | 0.0 | 0.0 | 0.00 | 0.05 | 0.00 | 63 | 1016.0 |
| 20260506092206 | 20 | 202 | 0.0 | 0.0 | 0.00 | 0.05 | 0.00 | 64 | 1016.0 |
| 20260506092106 | 20 | 202 | 0.0 | 0.0 | 0.00 | 0.05 | 0.00 | 64 | 1016.0 |
| 20260506092006 | 20 | 180 | 0.0 | 0.0 | 0.00 | 0.05 | 0.00 | 64 | 1015.9 |
| 20260506091906 | 20 | 180 | 0.0 | 0.0 | 0.00 | 0.05 | 0.00 | 64 | 1016.0 |
| 20260506091806 | 20 | 202 | 0.0 | 0.0 | 0.00 | 0.05 | 0.00 | 64 | 1016.0 |
| 20260506091706 | 20 | 202 | 0.0 | 0.0 | 0.00 | 0.05 | 0.00 | 64 | 1015.9 |
| 20260506091606 | 20 | 202 | 0.0 | 0.0 | 0.00 | 0.05 | 0.00 | 64 | 1016.0 |
| 20260506091506 | 20 | 202 | 0.0 | 0.0 | 0.00 | 0.05 | 0.00 | 64 | 1016.0 |
| 20260506091406 | 20 | 202 | 0.0 | 0.0 | 0.00 | 0.05 | 0.00 | 65 | 1015.9 |
| 20260506091306 | 20 | 202 | 0.0 | 0.0 | 0.00 | 0.05 | 0.00 | 65 | 1016.0 |
| 20260506091206 | 20 | 202 | 0.0 | 0.0 | 0.00 | 0.05 | 0.00 | 65 | 1016.0 |
| 20260506091106 | 20 | 202 | 0.0 | 0.0 | 0.00 | 0.05 | 0.00 | 65 | 1016.0 |
| 20260506091006 | 20 | 202 | 0.0 | 0.0 | 0.00 | 0.05 | 0.00 | 65 | 1016.0 |
| 20260506090906 | 20 | 202 | 0.0 | 0.0 | 0.00 | 0.05 | 0.00 | 65 | 1016.0 |
| 20260506090806 | 20 | 202 | 0.0 | 0.0 | 0.00 | 0.05 | 0.00 | 65 | 1016.0 |
| 20260506090706 | 20 | 202 | 0.0 | 0.0 | 0.00 | 0.05 | 0.00 | 65 | 1015.9 |
| 20260506090606 | 20 | 202 | 0.0 | 0.0 | 0.00 | 0.05 | 0.00 | 66 | 1016.0 |
| 20260506090506 | 20 | 202 | 0.0 | 0.0 | 0.00 | 0.05 | 0.00 | 66 | 1015.9 |
| 20260506090406 | 20 | 202 | 0.0 | 0.0 | 0.00 | 0.05 | 0.00 | 66 | 1016.0 |
| 20260506090306 | 20 | 202 | 0.0 | 0.0 | 0.00 | 0.05 | 0.00 | 66 | 1016.0 |
| 20260506090206 | 20 | 202 | 0.0 | 0.0 | 0.00 | 0.05 | 0.00 | 66 | 1016.0 |
| 20260506090106 | 20 | 202 | 0.0 | 0.0 | 0.00 | 0.05 | 0.00 | 67 | 1016.0 |
| 20260506090006 | 20 | 202 | 0.0 | 0.0 | 0.00 | 0.05 | 0.00 | 67 | 1016.0 |
| 20260506085906 | 20 | 180 | 0.0 | 0.0 | 0.00 | 0.05 | 0.00 | 67 | 1016.0 |
| 20260506085806 | 20 | 180 | 0.0 | 0.0 | 0.00 | 0.05 | 0.00 | 67 | 1016.0 |
| 20260506085706 | 19 | 180 | 0.0 | 0.0 | 0.00 | 0.05 | 0.00 | 67 | 1016.0 |
| 20260506085606 | 19 | 180 | 0.0 | 0.0 | 0.00 | 0.05 | 0.00 | 68 | 1016.0 |
| 20260506085506 | 19 | 180 | 0.0 | 0.0 | 0.00 | 0.05 | 0.00 | 68 | 1016.0 |
| 20260506085406 | 19 | 180 | 0.0 | 0.0 | 0.00 | 0.05 | 0.00 | 68 | 1016.0 |
| 20260506085306 | 19 | 180 | 0.0 | 0.0 | 0.00 | 0.05 | 0.00 | 68 | 1016.0 |
| 20260506085206 | 19 | 180 | 0.0 | 0.0 | 0.00 | 0.05 | 0.00 | 68 | 1016.0 |
| 20260506085106 | 19 | 180 | 0.0 | 0.0 | 0.00 | 0.05 | 0.00 | 68 | 1016.0 |
| 20260506085006 | 19 | 180 | 0.0 | 0.0 | 0.00 | 0.05 | 0.00 | 68 | 1016.0 |
| 20260506084906 | 18 | 180 | 0.0 | 0.0 | 0.00 | 0.05 | 0.00 | 68 | 1016.2 |
| 20260506084806 | 18 | 180 | 0.0 | 0.0 | 0.00 | 0.05 | 0.00 | 68 | 1016.0 |
| 20260506084706 | 18 | 180 | 0.0 | 0.0 | 0.00 | 0.05 | 0.00 | 68 | 1016.0 |
| 20260506084606 | 18 | 180 | 0.0 | 0.0 | 0.00 | 0.05 | 0.00 | 69 | 1016.0 |
| 20260506084506 | 18 | 180 | 0.0 | 0.0 | 0.00 | 0.05 | 0.00 | 69 | 1016.0 |
| 20260506084406 | 18 | 180 | 0.0 | 0.0 | 0.00 | 0.05 | 0.00 | 69 | 1016.0 |
| 20260506084306 | 18 | 180 | 0.0 | 0.0 | 0.00 | 0.05 | 0.00 | 69 | 1016.0 |
| 20260506084206 | 18 | 180 | 0.0 | 0.0 | 0.00 | 0.05 | 0.00 | 69 | 1016.0 |
| 20260506084106 | 18 | 180 | 0.0 | 0.0 | 0.00 | 0.05 | 0.00 | 69 | 1016.0 |
| 20260506084006 | 18 | 180 | 0.0 | 0.0 | 0.00 | 0.05 | 0.00 | 69 | 1016.2 |
| 20260506083906 | 18 | 180 | 0.0 | 0.0 | 0.00 | 0.05 | 0.00 | 70 | 1016.0 |
| 20260506083806 | 18 | 225 | 0.0 | 0.0 | 0.00 | 0.05 | 0.00 | 70 | 1016.0 |
| 20260506083706 | 18 | 247 | 0.0 | 0.0 | 0.00 | 0.05 | 0.00 | 70 | 1016.0 |
| 20260506083606 | 18 | 247 | 0.0 | 0.0 | 0.00 | 0.05 | 0.00 | 70 | 1016.0 |
| 20260506083506 | 18 | 247 | 0.0 | 0.0 | 0.00 | 0.05 | 0.00 | 70 | 1016.0 |
| 20260506083406 | 18 | 247 | 0.0 | 0.0 | 0.00 | 0.05 | 0.00 | 70 | 1016.0 |
| 20260506083306 | 17 | 247 | 0.0 | 0.0 | 0.00 | 0.05 | 0.00 | 70 | 1016.0 |
| 20260506083206 | 17 | 247 | 0.0 | 0.0 | 0.00 | 0.05 | 0.00 | 70 | 1016.0 |
| 20260506083106 | 17 | 247 | 0.0 | 0.0 | 0.00 | 0.05 | 0.00 | 70 | 1016.0 |
| 20260506083006 | 17 | 247 | 0.0 | 0.0 | 0.00 | 0.05 | 0.00 | 70 | 1016.0 |
| 20260506082906 | 17 | 247 | 0.0 | 0.0 | 0.00 | 0.05 | 0.00 | 70 | 1016.0 |
| 20260506082806 | 17 | 247 | 0.0 | 0.0 | 0.00 | 0.05 | 0.00 | 71 | 1016.0 |
| 20260506082706 | 17 | 247 | 0.0 | 0.0 | 0.00 | 0.05 | 0.00 | 71 | 1016.0 |
| 20260506082606 | 17 | 247 | 0.0 | 0.0 | 0.00 | 0.05 | 0.00 | 71 | 1016.0 |
| 20260506082506 | 17 | 247 | 0.0 | 0.0 | 0.00 | 0.05 | 0.00 | 71 | 1016.0 |
| 20260506082406 | 17 | 247 | 0.0 | 0.0 | 0.00 | 0.05 | 0.00 | 71 | 1016.0 |
| 20260506082306 | 17 | 247 | 0.0 | 0.0 | 0.00 | 0.05 | 0.00 | 71 | 1015.9 |
| 20260506082206 | 17 | 247 | 0.0 | 0.0 | 0.00 | 0.05 | 0.00 | 71 | 1016.0 |
| 20260506082106 | 17 | 247 | 0.0 | 0.0 | 0.00 | 0.05 | 0.00 | 71 | 1016.0 |
| 20260506082006 | 17 | 247 | 0.0 | 0.0 | 0.00 | 0.05 | 0.00 | 71 | 1015.9 |
| 20260506081906 | 17 | 247 | 0.0 | 0.0 | 0.00 | 0.05 | 0.00 | 71 | 1016.0 |
| 20260506081806 | 17 | 247 | 0.0 | 0.0 | 0.00 | 0.05 | 0.00 | 71 | 1016.0 |
| 20260506081706 | 16 | 247 | 0.0 | 0.0 | 0.00 | 0.05 | 0.00 | 72 | 1016.0 |
| 20260506081606 | 16 | 247 | 0.0 | 0.0 | 0.00 | 0.05 | 0.00 | 72 | 1016.0 |
| 20260506081506 | 16 | 247 | 0.0 | 0.0 | 0.00 | 0.05 | 0.00 | 72 | 1016.0 |
| 20260506081406 | 16 | 247 | 0.0 | 0.0 | 0.00 | 0.05 | 0.00 | 72 | 1016.0 |
| 20260506081306 | 16 | 247 | 0.0 | 0.0 | 0.00 | 0.05 | 0.00 | 72 | 1016.0 |
| 20260506081206 | 16 | 247 | 0.0 | 0.0 | 0.00 | 0.05 | 0.00 | 72 | 1016.0 |
| 20260506081106 | 16 | 247 | 0.0 | 0.0 | 0.00 | 0.05 | 0.00 | 72 | 1016.0 |
| 20260506081006 | 16 | 247 | 0.0 | 0.0 | 0.00 | 0.05 | 0.00 | 72 | 1016.0 |
| 20260506080906 | 16 | 247 | 0.0 | 0.0 | 0.00 | 0.05 | 0.00 | 72 | 1016.0 |
| 20260506080806 | 16 | 247 | 0.0 | 0.0 | 0.00 | 0.05 | 0.00 | 72 | 1016.0 |
| 20260506080706 | 16 | 247 | 0.0 | 0.0 | 0.00 | 0.05 | 0.00 | 72 | 1016.0 |
| 20260506080606 | 16 | 247 | 0.0 | 0.0 | 0.00 | 0.05 | 0.00 | 72 | 1015.9 |
| 20260506080506 | 16 | 247 | 0.0 | 0.0 | 0.00 | 0.05 | 0.00 | 72 | 1015.9 |
| 20260506080406 | 16 | 247 | 0.0 | 0.0 | 0.00 | 0.05 | 0.00 | 72 | 1016.0 |
| 20260506080306 | 16 | 247 | 0.0 | 0.0 | 0.00 | 0.05 | 0.00 | 73 | 1016.0 |
| 20260506080206 | 16 | 247 | 0.0 | 0.0 | 0.00 | 0.05 | 0.00 | 73 | 1016.0 |
| 20260506080106 | 16 | 247 | 0.0 | 0.0 | 0.00 | 0.05 | 0.00 | 73 | 1016.0 |
| 20260506073506 | 14 | 202 | 0.0 | 0.0 | 0.00 | 0.05 | 0.00 | 74 | 1016.0 |
| 20260506073406 | 14 | 202 | 0.0 | 0.0 | 0.00 | 0.05 | 0.00 | 74 | 1016.0 |
| 20260506073306 | 14 | 202 | 0.0 | 0.0 | 0.00 | 0.05 | 0.00 | 74 | 1016.0 |
| 20260506073206 | 14 | 202 | 0.0 | 0.0 | 0.00 | 0.05 | 0.00 | 75 | 1015.9 |
| 20260506073106 | 14 | 202 | 0.0 | 0.0 | 0.00 | 0.05 | 0.00 | 75 | 1016.0 |
| 20260506073006 | 14 | 202 | 0.0 | 0.0 | 0.00 | 0.05 | 0.00 | 75 | 1016.0 |
| 20260506072906 | 14 | 202 | 0.0 | 0.0 | 0.00 | 0.05 | 0.00 | 75 | 1016.0 |
| 20260506072806 | 14 | 202 | 0.0 | 0.0 | 0.00 | 0.05 | 0.00 | 75 | 1016.0 |
| 20260506072706 | 14 | 202 | 0.0 | 0.0 | 0.00 | 0.05 | 0.00 | 75 | 1016.0 |
| 20260506072606 | 14 | 202 | 0.0 | 0.0 | 0.00 | 0.05 | 0.00 | 75 | 1016.0 |
| 20260506072506 | 14 | 202 | 0.0 | 0.0 | 0.00 | 0.05 | 0.00 | 75 | 1016.0 |
| 20260506072406 | 14 | 202 | 0.0 | 0.0 | 0.00 | 0.05 | 0.00 | 74 | 1016.0 |
| 20260506072306 | 14 | 202 | 0.0 | 0.0 | 0.00 | 0.05 | 0.00 | 74 | 1016.0 |
| 20260506072206 | 14 | 202 | 0.0 | 0.0 | 0.00 | 0.05 | 0.00 | 74 | 1016.2 |
| 20260506072106 | 14 | 202 | 0.0 | 0.0 | 0.00 | 0.05 | 0.00 | 74 | 1016.0 |
| 20260506072006 | 14 | 202 | 0.0 | 0.0 | 0.00 | 0.05 | 0.00 | 74 | 1016.0 |
| 20260506071906 | 13 | 202 | 294.5 | 0.0 | 0.00 | 0.05 | 0.00 | 75 | 1016.0 |
| 20260506071806 | 13 | 202 | 0.0 | 0.0 | 0.00 | 0.05 | 0.00 | 75 | 1016.0 |
| 20260506071706 | 13 | 202 | 0.0 | 0.0 | 0.00 | 0.05 | 0.00 | 75 | 1016.0 |
| 20260506071606 | 13 | 202 | 0.0 | 0.0 | 0.00 | 0.05 | 0.00 | 75 | 1016.2 |
| 20260506071506 | 13 | 202 | 0.0 | 0.0 | 0.00 | 0.05 | 0.00 | 75 | 1016.0 |
| 20260506071406 | 13 | 202 | 0.0 | 0.0 | 0.00 | 0.05 | 0.00 | 75 | 1016.2 |
| 20260506071306 | 13 | 202 | 0.0 | 0.0 | 0.00 | 0.05 | 0.00 | 75 | 1016.2 |
| 20260506071206 | 13 | 202 | 0.0 | 0.0 | 0.00 | 0.05 | 0.00 | 75 | 1016.2 |
| 20260506071106 | 13 | 202 | 0.0 | 0.0 | 0.00 | 0.05 | 0.00 | 75 | 1016.2 |
| 20260506071006 | 13 | 202 | 0.0 | 0.0 | 0.00 | 0.05 | 0.00 | 75 | 1016.2 |
| 20260506070906 | 13 | 202 | 0.0 | 0.0 | 0.00 | 0.05 | 0.00 | 75 | 1016.2 |
| 20260506070806 | 13 | 202 | 0.0 | 0.0 | 0.00 | 0.05 | 0.00 | 75 | 1016.2 |
| 20260506070706 | 13 | 202 | 0.0 | 0.0 | 0.00 | 0.05 | 0.00 | 75 | 1016.2 |
| 20260506070606 | 13 | 202 | 0.0 | 0.0 | 0.00 | 0.05 | 0.00 | 75 | 1016.0 |
| 20260506070506 | 13 | 202 | 0.0 | 0.0 | 0.00 | 0.05 | 0.00 | 75 | 1016.2 |
| 20260506070406 | 13 | 202 | 0.0 | 0.0 | 0.00 | 0.05 | 0.00 | 75 | 1016.0 |
| 20260506070306 | 13 | 202 | 0.0 | 0.0 | 0.00 | 0.05 | 0.00 | 75 | 1016.2 |
| 20260506070206 | 13 | 202 | 0.0 | 0.0 | 0.00 | 0.05 | 0.00 | 75 | 1016.2 |
| 20260506070106 | 13 | 202 | 0.0 | 0.0 | 0.00 | 0.05 | 0.00 | 75 | 1016.2 |
| 20260506062505 | 12 | 202 | 0.0 | 0.0 | 0.00 | 0.05 | 0.00 | 77 | 1016.4 |
| 20260506062405 | 12 | 202 | 0.0 | 0.0 | 0.00 | 0.05 | 0.00 | 77 | 1016.4 |
| 20260506062306 | 12 | 202 | 0.0 | 0.0 | 0.00 | 0.05 | 0.00 | 76 | 1016.4 |
| 20260506062206 | 11 | 202 | 0.0 | 0.0 | 0.00 | 0.05 | 0.00 | 76 | 1016.4 |
| 20260506062105 | 11 | 202 | 0.0 | 0.0 | 0.00 | 0.05 | 0.00 | 76 | 1016.4 |
| 20260506062005 | 11 | 202 | 0.0 | 0.0 | 0.00 | 0.05 | 0.00 | 76 | 1016.2 |
| 20260506061906 | 11 | 202 | 0.0 | 0.0 | 0.00 | 0.05 | 0.00 | 76 | 1016.2 |
| 20260506061805 | 11 | 202 | 0.0 | 0.0 | 0.00 | 0.05 | 0.00 | 77 | 1016.2 |
| 20260506061706 | 11 | 202 | 0.0 | 0.0 | 0.00 | 0.05 | 0.00 | 77 | 1016.2 |
| 20260506061605 | 11 | 202 | 0.0 | 0.0 | 0.00 | 0.05 | 0.00 | 77 | 1016.2 |
| 20260506061505 | 11 | 202 | 0.0 | 0.0 | 0.00 | 0.05 | 0.00 | 77 | 1016.2 |
| 20260506061406 | 11 | 202 | 0.0 | 0.0 | 0.00 | 0.05 | 0.00 | 77 | 1016.2 |
| 20260506061306 | 11 | 202 | 0.0 | 0.0 | 0.00 | 0.05 | 0.00 | 77 | 1016.2 |
| 20260506061206 | 11 | 202 | 0.0 | 0.0 | 0.00 | 0.05 | 0.00 | 77 | 1016.2 |
| 20260506061105 | 10 | 202 | 0.0 | 0.0 | 0.00 | 0.05 | 0.00 | 77 | 1016.2 |
| 20260506061006 | 10 | 202 | 0.0 | 0.0 | 0.00 | 0.05 | 0.00 | 77 | 1016.2 |
| 20260506060905 | 10 | 202 | 0.0 | 0.0 | 0.00 | 0.05 | 0.00 | 77 | 1016.0 |
| 20260506060806 | 10 | 202 | 0.0 | 0.0 | 0.00 | 0.05 | 0.00 | 77 | 1016.2 |
| 20260506060705 | 10 | 202 | 0.0 | 0.0 | 0.00 | 0.05 | 0.00 | 77 | 1016.2 |
| 20260506060605 | 10 | 202 | 0.0 | 0.0 | 0.00 | 0.05 | 0.00 | 77 | 1016.2 |
| 20260506060505 | 10 | 202 | 0.0 | 0.0 | 0.00 | 0.05 | 0.00 | 77 | 1016.2 |
| 20260506060406 | 10 | 202 | 0.0 | 0.0 | 0.00 | 0.05 | 0.00 | 77 | 1016.2 |
| 20260506060305 | 10 | 202 | 0.0 | 0.0 | 0.00 | 0.05 | 0.00 | 77 | 1016.2 |
| 20260506060205 | 10 | 202 | 0.0 | 0.0 | 0.00 | 0.05 | 0.00 | 77 | 1016.2 |
| 20260506060106 | 10 | 202 | 0.0 | 0.0 | 0.00 | 0.05 | 0.00 | 77 | 1016.2 |
| 20260506051405 | 8 | 202 | 0.0 | 0.0 | 0.00 | 0.05 | 0.00 | 78 | 1016.4 |
| 20260506051305 | 8 | 202 | 0.0 | 0.0 | 0.00 | 0.05 | 0.00 | 78 | 1016.4 |
| 20260506051205 | 8 | 202 | 0.0 | 0.0 | 0.00 | 0.05 | 0.00 | 78 | 1016.4 |
| 20260506051105 | 8 | 202 | 0.0 | 0.0 | 0.00 | 0.05 | 0.00 | 78 | 1016.4 |
| 20260506051005 | 8 | 202 | 0.0 | 0.0 | 0.00 | 0.05 | 0.00 | 78 | 1016.4 |
| 20260506050905 | 8 | 202 | 0.0 | 0.0 | 0.00 | 0.05 | 0.00 | 78 | 1016.5 |
| 20260506050805 | 8 | 202 | 0.0 | 0.0 | 0.00 | 0.05 | 0.00 | 78 | 1016.4 |
| 20260506050705 | 8 | 202 | 0.0 | 0.0 | 0.00 | 0.05 | 0.00 | 78 | 1016.4 |
| 20260506050605 | 8 | 202 | 0.0 | 0.0 | 0.00 | 0.05 | 0.00 | 78 | 1016.5 |
| 20260506050505 | 8 | 202 | 0.0 | 0.0 | 0.00 | 0.05 | 0.00 | 78 | 1016.4 |
| 20260506050405 | 8 | 202 | 0.0 | 0.0 | 0.00 | 0.05 | 0.00 | 78 | 1016.5 |
| 20260506050305 | 8 | 202 | 0.0 | 0.0 | 0.00 | 0.05 | 0.00 | 78 | 1016.4 |
| 20260506050205 | 7 | 202 | 0.0 | 0.0 | 0.00 | 0.05 | 0.00 | 78 | 1016.4 |
| 20260506050105 | 8 | 202 | 0.0 | 0.0 | 0.00 | 0.05 | 0.00 | 78 | 1016.5 |
| 20260506045105 | 7 | 202 | 0.0 | 0.0 | 0.00 | 0.05 | 0.00 | 78 | 1016.4 |
| 20260506045005 | 7 | 202 | 0.0 | 0.0 | 0.00 | 0.05 | 0.00 | 78 | 1016.4 |
| 20260506044905 | 7 | 202 | 0.0 | 0.0 | 0.00 | 0.05 | 0.00 | 78 | 1016.4 |
| 20260506044805 | 7 | 202 | 0.0 | 0.0 | 0.00 | 0.05 | 0.00 | 78 | 1016.4 |
| 20260506044705 | 7 | 202 | 0.0 | 0.0 | 0.00 | 0.05 | 0.00 | 78 | 1016.4 |
| 20260506044605 | 7 | 202 | 0.0 | 0.0 | 0.00 | 0.05 | 0.00 | 78 | 1016.5 |
| 20260506044505 | 7 | 202 | 0.0 | 0.0 | 0.00 | 0.05 | 0.00 | 78 | 1016.4 |
| 20260506044405 | 7 | 202 | 0.0 | 0.0 | 0.00 | 0.05 | 0.00 | 78 | 1016.5 |
| 20260506044305 | 7 | 202 | 0.0 | 0.0 | 0.00 | 0.05 | 0.00 | 78 | 1016.5 |
| 20260506044205 | 7 | 202 | 0.0 | 0.0 | 0.00 | 0.05 | 0.00 | 78 | 1016.5 |
| 20260506044105 | 7 | 202 | 0.0 | 0.0 | 0.00 | 0.05 | 0.00 | 78 | 1016.5 |
| 20260506044005 | 7 | 202 | 0.0 | 0.0 | 0.00 | 0.05 | 0.00 | 78 | 1016.5 |
| 20260506043905 | 7 | 202 | 0.0 | 0.0 | 0.00 | 0.05 | 0.00 | 78 | 1016.5 |
| 20260506043805 | 7 | 202 | 0.0 | 0.0 | 0.00 | 0.05 | 0.00 | 78 | 1016.5 |
| 20260506043706 | 7 | 202 | 0.0 | 0.0 | 0.00 | 0.05 | 0.00 | 78 | 1016.5 |
| 20260506043605 | 7 | 202 | 0.0 | 0.0 | 0.00 | 0.05 | 0.00 | 78 | 1016.5 |
| 20260506043505 | 7 | 202 | 0.0 | 0.0 | 0.00 | 0.05 | 0.00 | 78 | 1016.5 |
| 20260506043405 | 7 | 202 | 0.0 | 0.0 | 0.00 | 0.05 | 0.00 | 78 | 1016.5 |
| 20260506043305 | 7 | 202 | 0.0 | 0.0 | 0.00 | 0.05 | 0.00 | 78 | 1016.5 |
| 20260506043205 | 7 | 202 | 0.0 | 0.0 | 0.00 | 0.05 | 0.00 | 78 | 1016.5 |
| 20260506043105 | 7 | 202 | 0.0 | 0.0 | 0.00 | 0.05 | 0.00 | 78 | 1016.7 |
| 20260506043005 | 6 | 202 | 0.0 | 0.0 | 0.00 | 0.05 | 0.00 | 78 | 1016.5 |
| 20260506042905 | 6 | 202 | 0.0 | 0.0 | 0.00 | 0.05 | 0.00 | 78 | 1016.5 |
| 20260506042805 | 6 | 202 | 0.0 | 0.0 | 0.00 | 0.05 | 0.00 | 78 | 1016.7 |
| 20260506042705 | 6 | 202 | 0.0 | 0.0 | 0.00 | 0.05 | 0.00 | 78 | 1016.7 |
| 20260506042605 | 6 | 202 | 0.0 | 0.0 | 0.00 | 0.05 | 0.00 | 78 | 1016.7 |
| 20260506042505 | 6 | 202 | 0.0 | 0.0 | 0.00 | 0.05 | 0.00 | 78 | 1016.7 |
| 20260506042405 | 6 | 202 | 0.0 | 0.0 | 0.00 | 0.05 | 0.00 | 78 | 1016.7 |
| 20260506042305 | 6 | 202 | 0.0 | 0.0 | 0.00 | 0.05 | 0.00 | 78 | 1016.7 |
| 20260506042205 | 6 | 202 | 0.0 | 0.0 | 0.00 | 0.05 | 0.00 | 78 | 1016.7 |
| 20260506042105 | 6 | 202 | 0.0 | 0.0 | 0.00 | 0.05 | 0.00 | 78 | 1016.7 |
| 20260506042005 | 6 | 202 | 0.0 | 0.0 | 0.00 | 0.05 | 0.00 | 78 | 1016.7 |
| 20260506041905 | 6 | 202 | 0.0 | 0.0 | 0.00 | 0.05 | 0.00 | 78 | 1016.7 |
| 20260506041805 | 6 | 202 | 0.0 | 0.0 | 0.00 | 0.05 | 0.00 | 78 | 1016.7 |
| 20260506041705 | 6 | 202 | 0.0 | 0.0 | 0.00 | 0.05 | 0.00 | 78 | 1016.7 |
| 20260506041605 | 6 | 202 | 0.0 | 0.0 | 0.00 | 0.05 | 0.00 | 78 | 1016.7 |
| 20260506041505 | 6 | 202 | 0.0 | 0.0 | 0.00 | 0.05 | 0.00 | 78 | 1016.7 |
| 20260506041405 | 6 | 202 | 0.0 | 0.0 | 0.00 | 0.05 | 0.00 | 78 | 1016.7 |
| 20260506041305 | 6 | 202 | 0.0 | 0.0 | 0.00 | 0.05 | 0.00 | 78 | 1016.7 |
| 20260506041205 | 6 | 202 | 0.0 | 0.0 | 0.00 | 0.05 | 0.00 | 78 | 1016.9 |
| 20260506041105 | 6 | 202 | 0.0 | 0.0 | 0.00 | 0.05 | 0.00 | 78 | 1016.9 |
| 20260506041005 | 6 | 202 | 0.0 | 0.0 | 0.00 | 0.05 | 0.00 | 78 | 1016.7 |
| 20260506040905 | 6 | 202 | 0.0 | 0.0 | 0.00 | 0.05 | 0.00 | 78 | 1016.7 |
| 20260506040805 | 6 | 202 | 0.0 | 0.0 | 0.00 | 0.05 | 0.00 | 78 | 1016.7 |
| 20260506040705 | 6 | 202 | 0.0 | 0.0 | 0.00 | 0.05 | 0.00 | 78 | 1016.9 |
| 20260506040605 | 6 | 202 | 0.0 | 0.0 | 0.00 | 0.05 | 0.00 | 78 | 1016.7 |
| 20260506040505 | 6 | 202 | 0.0 | 0.0 | 0.00 | 0.05 | 0.00 | 78 | 1016.7 |
| 20260506040405 | 6 | 202 | 0.0 | 0.0 | 0.00 | 0.05 | 0.00 | 78 | 1016.7 |
| 20260506040305 | 6 | 202 | 0.0 | 0.0 | 0.00 | 0.05 | 0.00 | 78 | 1016.7 |
| 20260506040205 | 6 | 202 | 0.0 | 0.0 | 0.00 | 0.05 | 0.00 | 78 | 1016.7 |
| 20260506040105 | 6 | 202 | 0.0 | 0.0 | 0.00 | 0.05 | 0.00 | 78 | 1016.7 |
| 20260506040005 | 6 | 202 | 0.0 | 0.0 | 0.00 | 0.05 | 0.00 | 78 | 1016.7 |
| 20260506035905 | 6 | 202 | 0.0 | 0.0 | 0.00 | 0.05 | 0.00 | 78 | 1016.7 |
| 20260506035805 | 6 | 202 | 0.0 | 0.0 | 0.00 | 0.05 | 0.00 | 78 | 1016.7 |
| 20260506035705 | 6 | 202 | 0.0 | 0.0 | 0.00 | 0.05 | 0.00 | 78 | 1016.7 |
| 20260506035605 | 6 | 202 | 0.0 | 0.0 | 0.00 | 0.05 | 0.00 | 78 | 1017.0 |
| 20260506035505 | 6 | 202 | 0.0 | 0.0 | 0.00 | 0.05 | 0.00 | 78 | 1016.9 |
| 20260506035405 | 6 | 202 | 0.0 | 0.0 | 0.00 | 0.05 | 0.00 | 78 | 1017.0 |
| 20260506035306 | 6 | 202 | 0.0 | 0.0 | 0.00 | 0.05 | 0.00 | 78 | 1017.0 |
| 20260506035205 | 6 | 202 | 0.0 | 0.0 | 0.00 | 0.05 | 0.00 | 78 | 1017.0 |
| 20260506035105 | 6 | 202 | 0.0 | 0.0 | 0.00 | 0.05 | 0.00 | 78 | 1017.0 |
| 20260506035005 | 6 | 202 | 0.0 | 0.0 | 0.00 | 0.05 | 0.00 | 78 | 1017.0 |
| 20260506034905 | 6 | 202 | 0.0 | 0.0 | 0.00 | 0.05 | 0.00 | 78 | 1017.0 |
| 20260506034805 | 6 | 202 | 0.0 | 0.0 | 0.00 | 0.05 | 0.00 | 78 | 1017.0 |
| 20260506034705 | 6 | 202 | 0.0 | 0.0 | 0.00 | 0.05 | 0.00 | 78 | 1017.0 |
| 20260506034605 | 6 | 202 | 0.0 | 0.0 | 0.00 | 0.05 | 0.00 | 78 | 1017.0 |
| 20260506034505 | 6 | 202 | 0.0 | 0.0 | 0.00 | 0.05 | 0.00 | 78 | 1017.0 |
| 20260506034405 | 6 | 202 | 0.0 | 0.0 | 0.00 | 0.05 | 0.00 | 78 | 1017.0 |
| 20260506034305 | 6 | 202 | 0.0 | 0.0 | 0.00 | 0.05 | 0.00 | 78 | 1017.0 |
| 20260506034205 | 6 | 202 | 0.0 | 0.0 | 0.00 | 0.05 | 0.00 | 78 | 1017.0 |
| 20260506034105 | 6 | 202 | 0.0 | 0.0 | 0.00 | 0.05 | 0.00 | 78 | 1017.0 |
| 20260506034005 | 6 | 202 | 0.0 | 0.0 | 0.00 | 0.05 | 0.00 | 78 | 1017.0 |
| 20260506033905 | 6 | 202 | 0.0 | 0.0 | 0.00 | 0.05 | 0.00 | 78 | 1017.0 |
| 20260506033805 | 6 | 202 | 0.0 | 0.0 | 0.00 | 0.05 | 0.00 | 78 | 1017.0 |
| 20260506033705 | 6 | 202 | 0.0 | 0.0 | 0.00 | 0.05 | 0.00 | 78 | 1017.0 |
| 20260506033605 | 6 | 202 | 0.0 | 0.0 | 0.00 | 0.05 | 0.00 | 78 | 1017.0 |
| 20260506033505 | 6 | 202 | 0.0 | 0.0 | 0.00 | 0.05 | 0.00 | 77 | 1017.0 |
| 20260506033405 | 6 | 202 | 0.0 | 0.0 | 0.00 | 0.05 | 0.00 | 77 | 1017.0 |
| 20260506033305 | 6 | 202 | 0.0 | 0.0 | 0.00 | 0.05 | 0.00 | 77 | 1017.0 |
| 20260506033205 | 6 | 202 | 0.0 | 0.0 | 0.00 | 0.05 | 0.00 | 77 | 1017.0 |
| 20260506033105 | 6 | 202 | 0.0 | 0.0 | 0.00 | 0.05 | 0.00 | 77 | 1017.0 |
| 20260506033006 | 6 | 202 | 0.0 | 0.0 | 0.00 | 0.05 | 0.00 | 77 | 1017.0 |
| 20260506032905 | 6 | 202 | 0.0 | 0.0 | 0.00 | 0.05 | 0.00 | 77 | 1017.0 |
| 20260506032805 | 6 | 202 | 0.0 | 0.0 | 0.00 | 0.05 | 0.00 | 77 | 1017.0 |
| 20260506032705 | 6 | 202 | 0.0 | 0.0 | 0.00 | 0.05 | 0.00 | 77 | 1017.0 |
| 20260506032605 | 6 | 202 | 0.0 | 0.0 | 0.00 | 0.05 | 0.00 | 77 | 1017.0 |
| 20260506032505 | 6 | 202 | 0.0 | 0.0 | 0.00 | 0.05 | 0.00 | 77 | 1017.0 |
| 20260506032405 | 6 | 202 | 0.0 | 0.0 | 0.00 | 0.05 | 0.00 | 77 | 1017.0 |
| 20260506032306 | 6 | 202 | 0.0 | 0.0 | 0.00 | 0.05 | 0.00 | 77 | 1017.0 |
| 20260506032205 | 6 | 202 | 0.0 | 0.0 | 0.00 | 0.05 | 0.00 | 77 | 1017.0 |
| 20260506032105 | 6 | 202 | 0.0 | 0.0 | 0.00 | 0.05 | 0.00 | 77 | 1016.9 |
| 20260506032005 | 6 | 202 | 0.0 | 0.0 | 0.00 | 0.05 | 0.00 | 77 | 1017.0 |
| 20260506031905 | 6 | 202 | 0.0 | 0.0 | 0.00 | 0.05 | 0.00 | 77 | 1017.0 |
| 20260506031805 | 6 | 202 | 0.0 | 0.0 | 0.00 | 0.05 | 0.00 | 77 | 1017.0 |
| 20260506031705 | 6 | 202 | 0.0 | 0.0 | 0.00 | 0.05 | 0.00 | 77 | 1017.0 |
| 20260506031605 | 6 | 202 | 0.0 | 0.0 | 0.00 | 0.05 | 0.00 | 77 | 1017.0 |
| 20260506031505 | 6 | 202 | 0.0 | 0.0 | 0.00 | 0.05 | 0.00 | 77 | 1017.0 |
| 20260506031405 | 6 | 202 | 0.0 | 0.0 | 0.00 | 0.05 | 0.00 | 77 | 1017.0 |
| 20260506031305 | 6 | 202 | 0.0 | 0.0 | 0.00 | 0.05 | 0.00 | 77 | 1017.0 |
| 20260506031205 | 6 | 202 | 0.0 | 0.0 | 0.00 | 0.05 | 0.00 | 77 | 1017.0 |
| 20260506031105 | 6 | 202 | 0.0 | 0.0 | 0.00 | 0.05 | 0.00 | 77 | 1017.0 |
| 20260506031005 | 6 | 202 | 0.0 | 0.0 | 0.00 | 0.05 | 0.00 | 77 | 1017.0 |
| 20260506030905 | 6 | 202 | 0.0 | 0.0 | 0.00 | 0.05 | 0.00 | 77 | 1017.0 |
| 20260506030805 | 6 | 202 | 0.0 | 0.0 | 0.00 | 0.05 | 0.00 | 77 | 1017.0 |
| 20260506030705 | 6 | 202 | 0.0 | 0.0 | 0.00 | 0.05 | 0.00 | 77 | 1017.0 |
| 20260506030605 | 6 | 202 | 0.0 | 0.0 | 0.00 | 0.05 | 0.00 | 77 | 1017.0 |
| 20260506030505 | 6 | 202 | 0.0 | 0.0 | 0.00 | 0.05 | 0.00 | 77 | 1017.2 |
| 20260506030405 | 6 | 202 | 0.0 | 0.0 | 0.00 | 0.05 | 0.00 | 77 | 1017.2 |
| 20260506030305 | 6 | 202 | 0.0 | 0.0 | 0.00 | 0.05 | 0.00 | 77 | 1017.2 |
| 20260506030205 | 6 | 202 | 0.0 | 0.0 | 0.00 | 0.05 | 0.00 | 77 | 1017.2 |
| 20260506030105 | 6 | 202 | 0.0 | 0.0 | 0.00 | 0.05 | 0.00 | 77 | 1017.2 |
| 20260506030005 | 6 | 202 | 0.0 | 0.0 | 0.00 | 0.05 | 0.00 | 77 | 1017.2 |
| 20260506025905 | 6 | 202 | 0.0 | 0.0 | 0.00 | 0.05 | 0.00 | 77 | 1017.4 |
| 20260506025805 | 6 | 202 | 0.0 | 0.0 | 0.00 | 0.05 | 0.00 | 77 | 1017.2 |
| 20260506025705 | 6 | 202 | 0.0 | 0.0 | 0.00 | 0.05 | 0.00 | 77 | 1017.4 |
| 20260506025605 | 6 | 202 | 0.0 | 0.0 | 0.00 | 0.05 | 0.00 | 77 | 1017.2 |
| 20260506025505 | 6 | 202 | 0.0 | 0.0 | 0.00 | 0.05 | 0.00 | 77 | 1017.2 |
| 20260506025405 | 6 | 202 | 0.0 | 0.0 | 0.00 | 0.05 | 0.00 | 77 | 1017.4 |
| 20260506025306 | 6 | 202 | 0.0 | 0.0 | 0.00 | 0.05 | 0.00 | 77 | 1017.2 |
| 20260506025205 | 6 | 202 | 0.0 | 0.0 | 0.00 | 0.05 | 0.00 | 77 | 1017.4 |
| 20260506025105 | 6 | 202 | 0.0 | 0.0 | 0.00 | 0.05 | 0.00 | 77 | 1017.4 |
| 20260506025005 | 6 | 202 | 0.0 | 0.0 | 0.00 | 0.05 | 0.00 | 77 | 1017.4 |
| 20260506024905 | 6 | 202 | 0.0 | 0.0 | 0.00 | 0.05 | 0.00 | 77 | 1017.4 |
| 20260506024805 | 6 | 202 | 0.0 | 0.0 | 0.00 | 0.05 | 0.00 | 77 | 1017.2 |
| 20260506024705 | 6 | 202 | 0.0 | 0.0 | 0.00 | 0.05 | 0.00 | 77 | 1017.2 |
| 20260506024605 | 6 | 202 | 0.0 | 0.0 | 0.00 | 0.05 | 0.00 | 77 | 1017.2 |
| 20260506024505 | 6 | 202 | 0.0 | 0.0 | 0.00 | 0.05 | 0.00 | 77 | 1017.4 |
| 20260506024405 | 6 | 202 | 0.0 | 0.0 | 0.00 | 0.05 | 0.00 | 77 | 1017.4 |
| 20260506024306 | 6 | 202 | 0.0 | 0.0 | 0.00 | 0.05 | 0.00 | 77 | 1017.2 |
| 20260506024205 | 6 | 202 | 0.0 | 0.0 | 0.00 | 0.05 | 0.00 | 77 | 1017.4 |
| 20260506024105 | 6 | 202 | 0.0 | 0.0 | 0.00 | 0.05 | 0.00 | 77 | 1017.5 |
| 20260506024005 | 6 | 202 | 0.0 | 0.0 | 0.00 | 0.05 | 0.00 | 77 | 1017.5 |
| 20260506023905 | 6 | 202 | 0.0 | 0.0 | 0.00 | 0.05 | 0.00 | 77 | 1017.5 |
| 20260506023805 | 6 | 202 | 0.0 | 0.0 | 0.00 | 0.05 | 0.00 | 77 | 1017.5 |
| 20260506023705 | 6 | 202 | 0.0 | 0.0 | 0.00 | 0.05 | 0.00 | 77 | 1017.4 |
| 20260506023605 | 6 | 202 | 0.0 | 0.0 | 0.00 | 0.05 | 0.00 | 77 | 1017.5 |
| 20260506023505 | 6 | 202 | 0.0 | 0.0 | 0.00 | 0.05 | 0.00 | 77 | 1017.5 |
| 20260506023405 | 6 | 202 | 0.0 | 0.0 | 0.00 | 0.05 | 0.00 | 77 | 1017.5 |
| 20260506023305 | 6 | 202 | 0.0 | 0.0 | 0.00 | 0.05 | 0.00 | 77 | 1017.5 |
| 20260506023205 | 6 | 202 | 0.0 | 0.0 | 0.00 | 0.05 | 0.00 | 77 | 1017.5 |
| 20260506023105 | 6 | 202 | 0.0 | 0.0 | 0.00 | 0.05 | 0.00 | 77 | 1017.5 |
| 20260506023005 | 6 | 202 | 0.0 | 0.0 | 0.00 | 0.05 | 0.00 | 77 | 1017.5 |
| 20260506022905 | 6 | 202 | 0.0 | 0.0 | 0.00 | 0.05 | 0.00 | 77 | 1017.5 |
| 20260506022805 | 6 | 202 | 0.0 | 0.0 | 0.00 | 0.05 | 0.00 | 77 | 1017.7 |
| 20260506022705 | 6 | 202 | 0.0 | 0.0 | 0.00 | 0.05 | 0.00 | 77 | 1017.7 |
| 20260506022605 | 6 | 202 | 0.0 | 0.0 | 0.00 | 0.05 | 0.00 | 77 | 1017.7 |
| 20260506022505 | 6 | 202 | 0.0 | 0.0 | 0.00 | 0.05 | 0.00 | 77 | 1017.7 |
| 20260506022405 | 6 | 202 | 0.0 | 0.0 | 0.00 | 0.05 | 0.00 | 77 | 1017.7 |
| 20260506022306 | 6 | 202 | 0.0 | 0.0 | 0.00 | 0.05 | 0.00 | 76 | 1017.9 |
| 20260506022205 | 6 | 202 | 0.0 | 0.0 | 0.00 | 0.05 | 0.00 | 76 | 1017.9 |
| 20260506022105 | 6 | 202 | 0.0 | 0.0 | 0.00 | 0.05 | 0.00 | 76 | 1017.7 |
| 20260506022005 | 6 | 202 | 0.0 | 0.0 | 0.00 | 0.05 | 0.00 | 76 | 1017.7 |
| 20260506021905 | 6 | 202 | 0.0 | 0.0 | 0.00 | 0.05 | 0.00 | 76 | 1017.7 |
| 20260506021805 | 6 | 202 | 0.0 | 0.0 | 0.00 | 0.05 | 0.00 | 76 | 1017.9 |
| 20260506021705 | 6 | 202 | 0.0 | 0.0 | 0.00 | 0.05 | 0.00 | 77 | 1017.9 |
| 20260506021605 | 6 | 202 | 0.0 | 0.0 | 0.00 | 0.05 | 0.00 | 77 | 1017.9 |
| 20260506021505 | 6 | 202 | 0.0 | 0.0 | 0.00 | 0.05 | 0.00 | 77 | 1017.9 |
| 20260506021405 | 6 | 202 | 0.0 | 0.0 | 0.00 | 0.05 | 0.00 | 77 | 1017.9 |
| 20260506021305 | 6 | 202 | 0.0 | 0.0 | 0.00 | 0.05 | 0.00 | 77 | 1017.7 |
| 20260506021205 | 6 | 202 | 0.0 | 0.0 | 0.00 | 0.05 | 0.00 | 76 | 1017.9 |
| 20260506021105 | 6 | 202 | 0.0 | 0.0 | 0.00 | 0.05 | 0.00 | 76 | 1017.9 |
| 20260506021005 | 6 | 202 | 0.0 | 0.0 | 0.00 | 0.05 | 0.00 | 76 | 1017.9 |
| 20260506020905 | 6 | 202 | 0.0 | 0.0 | 0.00 | 0.05 | 0.00 | 76 | 1017.7 |
| 20260506020805 | 6 | 202 | 0.0 | 0.0 | 0.00 | 0.05 | 0.00 | 76 | 1017.9 |
| 20260506020705 | 6 | 202 | 0.0 | 0.0 | 0.00 | 0.05 | 0.00 | 76 | 1017.9 |
| 20260506020605 | 6 | 202 | 0.0 | 0.0 | 0.00 | 0.05 | 0.00 | 76 | 1017.9 |
| 20260506020505 | 6 | 202 | 0.0 | 0.0 | 0.00 | 0.05 | 0.00 | 76 | 1017.9 |
| 20260506020405 | 7 | 202 | 0.0 | 0.0 | 0.00 | 0.05 | 0.00 | 76 | 1017.9 |
| 20260506020305 | 7 | 202 | 0.0 | 0.0 | 0.00 | 0.05 | 0.00 | 76 | 1017.9 |
| 20260506020205 | 7 | 202 | 0.0 | 0.0 | 0.00 | 0.05 | 0.00 | 76 | 1017.9 |
| 20260506020105 | 7 | 202 | 0.0 | 0.0 | 0.00 | 0.05 | 0.00 | 76 | 1017.9 |
| 20260506020005 | 7 | 202 | 0.0 | 0.0 | 0.00 | 0.05 | 0.00 | 76 | 1017.9 |
| 20260506015905 | 7 | 202 | 0.0 | 0.0 | 0.00 | 0.05 | 0.00 | 76 | 1017.9 |
| 20260506015805 | 7 | 202 | 0.0 | 0.0 | 0.00 | 0.05 | 0.00 | 76 | 1017.7 |
| 20260506015700 | 7 | 202 | 0.0 | 0.0 | 0.00 | 0.05 | 0.00 | 76 | 1017.7 |
| 20260506015605 | 7 | 202 | 0.0 | 0.0 | 0.00 | 0.05 | 0.00 | 76 | 1017.9 |
| 20260506015505 | 7 | 202 | 0.0 | 0.0 | 0.00 | 0.05 | 0.00 | 76 | 1017.7 |
| 20260506015405 | 7 | 202 | 0.0 | 0.0 | 0.00 | 0.05 | 0.00 | 76 | 1017.7 |
| 20260506015306 | 7 | 202 | 0.0 | 0.0 | 0.00 | 0.05 | 0.00 | 76 | 1017.9 |
| 20260506015205 | 7 | 202 | 0.0 | 0.0 | 0.00 | 0.05 | 0.00 | 76 | 1017.7 |
| 20260506015105 | 7 | 202 | 0.0 | 0.0 | 0.00 | 0.05 | 0.00 | 76 | 1017.7 |
| 20260506015005 | 7 | 202 | 0.0 | 0.0 | 0.00 | 0.05 | 0.00 | 76 | 1017.7 |
| 20260506014905 | 7 | 202 | 0.0 | 0.0 | 0.00 | 0.05 | 0.00 | 76 | 1017.9 |
| 20260506014805 | 7 | 202 | 0.0 | 0.0 | 0.00 | 0.05 | 0.00 | 76 | 1017.7 |
| 20260506014705 | 7 | 202 | 0.0 | 0.0 | 0.00 | 0.05 | 0.00 | 76 | 1017.7 |
| 20260506014605 | 7 | 202 | 0.0 | 0.0 | 0.00 | 0.05 | 0.00 | 76 | 1017.7 |
| 20260506014505 | 7 | 202 | 0.0 | 0.0 | 0.00 | 0.05 | 0.00 | 76 | 1017.7 |
| 20260506014405 | 7 | 202 | 0.0 | 0.0 | 0.00 | 0.05 | 0.00 | 76 | 1017.9 |
| 20260506014305 | 7 | 202 | 0.0 | 0.0 | 0.00 | 0.05 | 0.00 | 76 | 1017.7 |
| 20260506014205 | 7 | 202 | 0.0 | 0.0 | 0.00 | 0.05 | 0.00 | 76 | 1017.7 |
| 20260506014105 | 7 | 202 | 0.0 | 0.0 | 0.00 | 0.05 | 0.00 | 76 | 1017.7 |
| 20260506014005 | 7 | 202 | 0.0 | 0.0 | 0.00 | 0.05 | 0.00 | 76 | 1017.7 |
| 20260506013905 | 7 | 202 | 0.0 | 0.0 | 0.00 | 0.05 | 0.00 | 76 | 1017.7 |
| 20260506013805 | 7 | 202 | 0.0 | 0.0 | 0.00 | 0.05 | 0.00 | 76 | 1017.7 |
| 20260506013705 | 7 | 202 | 0.0 | 0.0 | 0.00 | 0.05 | 0.00 | 76 | 1017.7 |
| 20260506013605 | 7 | 202 | 0.0 | 0.0 | 0.00 | 0.05 | 0.00 | 76 | 1017.7 |
| 20260506013505 | 7 | 202 | 0.0 | 0.0 | 0.00 | 0.05 | 0.00 | 76 | 1017.5 |
| 20260506013405 | 7 | 202 | 0.0 | 0.0 | 0.00 | 0.05 | 0.00 | 76 | 1017.5 |
| 20260506013305 | 7 | 202 | 0.0 | 0.0 | 0.00 | 0.05 | 0.00 | 76 | 1017.5 |
| 20260506013205 | 7 | 202 | 0.0 | 0.0 | 0.00 | 0.05 | 0.00 | 76 | 1017.7 |
| 20260506013105 | 7 | 202 | 0.0 | 0.0 | 0.00 | 0.05 | 0.00 | 76 | 1017.7 |
| 20260506013005 | 7 | 202 | 0.0 | 0.0 | 0.00 | 0.05 | 0.00 | 76 | 1017.5 |
| 20260506012905 | 7 | 202 | 0.0 | 0.0 | 0.00 | 0.05 | 0.00 | 76 | 1017.5 |
| 20260506012805 | 7 | 202 | 0.0 | 0.0 | 0.00 | 0.05 | 0.00 | 76 | 1017.7 |
| 20260506012705 | 7 | 202 | 0.0 | 0.0 | 0.00 | 0.05 | 0.00 | 76 | 1017.7 |
| 20260506012605 | 7 | 202 | 0.0 | 0.0 | 0.00 | 0.05 | 0.00 | 76 | 1017.7 |
| 20260506012505 | 7 | 202 | 0.0 | 0.0 | 0.00 | 0.05 | 0.00 | 76 | 1017.7 |
| 20260506012405 | 7 | 202 | 0.0 | 0.0 | 0.00 | 0.05 | 0.00 | 76 | 1017.7 |
| 20260506012308 | 7 | 202 | 294.5 | 0.0 | 0.00 | 0.05 | 0.00 | 76 | 1017.7 |
| 20260506012205 | 7 | 202 | 0.0 | 0.0 | 0.00 | 0.05 | 0.00 | 76 | 1017.9 |
| 20260506012105 | 7 | 202 | 0.0 | 0.0 | 0.00 | 0.05 | 0.00 | 76 | 1017.9 |
| 20260506012005 | 7 | 202 | 0.0 | 0.0 | 0.00 | 0.05 | 0.00 | 76 | 1017.9 |
| 20260506011905 | 7 | 202 | 0.0 | 0.0 | 0.00 | 0.05 | 0.00 | 76 | 1017.9 |
| 20260506011805 | 7 | 202 | 0.0 | 0.0 | 0.00 | 0.05 | 0.00 | 76 | 1017.9 |
| 20260506011705 | 7 | 202 | 0.0 | 0.0 | 0.00 | 0.05 | 0.00 | 76 | 1017.9 |
| 20260506011605 | 7 | 202 | 0.0 | 0.0 | 0.00 | 0.05 | 0.00 | 76 | 1017.9 |
| 20260506011505 | 7 | 202 | 0.0 | 0.0 | 0.00 | 0.05 | 0.00 | 76 | 1017.9 |
| 20260506011405 | 7 | 202 | 0.0 | 0.0 | 0.00 | 0.05 | 0.00 | 76 | 1017.9 |
| 20260506011305 | 7 | 202 | 0.0 | 0.0 | 0.00 | 0.05 | 0.00 | 76 | 1017.9 |
| 20260506011205 | 7 | 202 | 0.0 | 0.0 | 0.00 | 0.05 | 0.00 | 76 | 1017.9 |
| 20260506011105 | 7 | 202 | 0.0 | 0.0 | 0.00 | 0.05 | 0.00 | 76 | 1017.9 |
| 20260506011005 | 7 | 202 | 0.0 | 0.0 | 0.00 | 0.05 | 0.00 | 76 | 1017.9 |
| 20260506010905 | 7 | 202 | 0.0 | 0.0 | 0.00 | 0.05 | 0.00 | 76 | 1018.0 |
| 20260506010805 | 7 | 202 | 0.0 | 0.0 | 0.00 | 0.05 | 0.00 | 76 | 1017.9 |
| 20260506010705 | 7 | 202 | 0.0 | 0.0 | 0.00 | 0.05 | 0.00 | 76 | 1017.9 |
| 20260506010605 | 7 | 202 | 0.0 | 0.0 | 0.00 | 0.05 | 0.00 | 76 | 1018.0 |
| 20260506010505 | 7 | 202 | 0.0 | 0.0 | 0.00 | 0.05 | 0.00 | 76 | 1017.9 |
| 20260506010405 | 7 | 202 | 0.0 | 0.0 | 0.00 | 0.05 | 0.00 | 76 | 1018.0 |
| 20260506010305 | 7 | 202 | 0.0 | 0.0 | 0.00 | 0.05 | 0.00 | 75 | 1018.0 |
| 20260506010205 | 7 | 202 | 0.0 | 0.0 | 0.00 | 0.05 | 0.00 | 75 | 1018.0 |
| 20260506010105 | 7 | 202 | 0.0 | 0.0 | 0.00 | 0.05 | 0.00 | 75 | 1018.0 |
| 20260506010005 | 7 | 202 | 0.0 | 0.0 | 0.00 | 0.05 | 0.00 | 75 | 1018.0 |
| 20260506005905 | 7 | 202 | 0.0 | 0.0 | 0.18 | 0.05 | 0.00 | 75 | 1018.0 |
| 20260506005805 | 7 | 202 | 0.0 | 0.0 | 0.00 | 0.05 | 0.00 | 75 | 1018.0 |
| 20260506005705 | 7 | 202 | 0.0 | 0.0 | 0.00 | 0.05 | 0.00 | 75 | 1018.0 |
| 20260506005605 | 7 | 202 | 0.0 | 0.0 | 0.00 | 0.05 | 0.00 | 75 | 1018.2 |
| 20260506005505 | 7 | 202 | 0.0 | 0.0 | 0.00 | 0.05 | 0.00 | 75 | 1018.2 |
| 20260506005405 | 7 | 202 | 0.0 | 0.0 | 0.00 | 0.05 | 0.00 | 75 | 1018.2 |
| 20260506005306 | 7 | 202 | 0.0 | 0.0 | 0.00 | 0.05 | 0.00 | 75 | 1018.0 |
| 20260506005205 | 7 | 202 | 0.0 | 0.0 | 0.00 | 0.05 | 0.00 | 75 | 1018.0 |
| 20260506005105 | 7 | 202 | 0.0 | 0.0 | 0.00 | 0.05 | 0.00 | 75 | 1018.2 |
| 20260506005006 | 7 | 202 | 0.0 | 0.0 | 0.00 | 0.05 | 0.00 | 75 | 1018.0 |
| 20260506004905 | 7 | 202 | 0.0 | 0.0 | 0.00 | 0.05 | 0.00 | 75 | 1018.0 |
| 20260506004805 | 7 | 202 | 0.0 | 0.0 | 0.00 | 0.05 | 0.00 | 75 | 1018.0 |
| 20260506004705 | 7 | 202 | 0.0 | 0.0 | 0.00 | 0.05 | 0.00 | 75 | 1018.0 |
| 20260506004605 | 7 | 202 | 0.0 | 0.0 | 0.00 | 0.05 | 0.00 | 75 | 1018.0 |
| 20260506004505 | 7 | 202 | 0.0 | 0.0 | 0.00 | 0.05 | 0.00 | 75 | 1018.0 |
| 20260506004405 | 7 | 202 | 0.0 | 0.0 | 0.00 | 0.05 | 0.00 | 75 | 1018.2 |
| 20260506004305 | 7 | 202 | 0.0 | 0.0 | 0.00 | 0.05 | 0.00 | 75 | 1018.2 |
| 20260506004205 | 7 | 202 | 0.0 | 0.0 | 0.00 | 0.05 | 0.00 | 75 | 1018.4 |
| 20260506004105 | 7 | 202 | 0.0 | 0.0 | 0.00 | 0.05 | 0.00 | 75 | 1018.2 |
| 20260506004005 | 7 | 202 | 0.0 | 0.0 | 0.00 | 0.05 | 0.00 | 75 | 1018.2 |
| 20260506003905 | 7 | 202 | 0.0 | 0.0 | 0.00 | 0.05 | 0.00 | 75 | 1018.2 |
| 20260506003805 | 7 | 202 | 0.0 | 0.0 | 0.00 | 0.05 | 0.00 | 75 | 1018.2 |
| 20260506003705 | 7 | 202 | 0.0 | 0.0 | 0.00 | 0.05 | 0.00 | 75 | 1018.4 |
| 20260506003605 | 7 | 202 | 0.0 | 0.0 | 0.00 | 0.05 | 0.00 | 75 | 1018.2 |
| 20260506003505 | 7 | 202 | 0.0 | 0.0 | 0.00 | 0.05 | 0.00 | 75 | 1018.2 |
| 20260506003405 | 7 | 202 | 0.0 | 0.0 | 0.00 | 0.05 | 0.00 | 75 | 1018.4 |
| 20260506003305 | 8 | 202 | 0.0 | 0.0 | 0.00 | 0.05 | 0.00 | 75 | 1018.2 |
| 20260506003205 | 8 | 202 | 0.0 | 0.0 | 0.00 | 0.05 | 0.00 | 75 | 1018.2 |
| 20260506003105 | 8 | 202 | 0.0 | 0.0 | 0.00 | 0.05 | 0.00 | 75 | 1018.2 |
| 20260506003005 | 8 | 202 | 0.0 | 0.0 | 0.00 | 0.05 | 0.00 | 75 | 1018.2 |
| 20260506002905 | 8 | 202 | 0.0 | 0.0 | 0.00 | 0.05 | 0.00 | 75 | 1018.2 |
| 20260506002805 | 8 | 202 | 0.0 | 0.0 | 0.00 | 0.05 | 0.00 | 75 | 1018.2 |
| 20260506002700 | 8 | 202 | 0.0 | 0.0 | 0.00 | 0.05 | 0.00 | 75 | 1018.0 |
| 20260506002605 | 8 | 202 | 0.0 | 0.0 | 0.00 | 0.05 | 0.00 | 75 | 1018.0 |
| 20260506002505 | 8 | 202 | 0.0 | 0.0 | 0.00 | 0.05 | 0.00 | 75 | 1018.0 |
| 20260506002405 | 8 | 202 | 0.0 | 0.0 | 0.00 | 0.05 | 0.00 | 75 | 1018.2 |
| 20260506002306 | 8 | 202 | 0.0 | 0.0 | 0.00 | 0.05 | 0.00 | 75 | 1018.0 |
| 20260506002205 | 8 | 202 | 0.0 | 0.0 | 0.00 | 0.05 | 0.00 | 75 | 1018.0 |
| 20260506002105 | 8 | 202 | 0.0 | 0.0 | 0.00 | 0.05 | 0.00 | 75 | 1018.0 |
| 20260506002005 | 8 | 202 | 0.0 | 0.0 | 0.00 | 0.05 | 0.00 | 75 | 1018.2 |
| 20260506001905 | 8 | 202 | 0.0 | 0.0 | 0.00 | 0.05 | 0.00 | 75 | 1018.2 |
| 20260506001805 | 8 | 202 | 0.0 | 0.0 | 0.00 | 0.05 | 0.00 | 75 | 1018.2 |
| 20260506001705 | 8 | 202 | 0.0 | 0.0 | 0.00 | 0.05 | 0.00 | 75 | 1018.2 |
| 20260506001605 | 8 | 202 | 0.0 | 0.0 | 0.00 | 0.05 | 0.00 | 75 | 1018.2 |
| 20260506001505 | 8 | 202 | 0.0 | 0.0 | 0.00 | 0.05 | 0.00 | 75 | 1018.2 |
| 20260506001405 | 8 | 202 | 0.0 | 0.0 | 0.00 | 0.05 | 0.00 | 75 | 1018.0 |
| 20260506001305 | 8 | 202 | 0.0 | 0.0 | 0.00 | 0.05 | 0.00 | 75 | 1018.0 |
| 20260506001205 | 8 | 202 | 0.0 | 0.0 | 0.00 | 0.05 | 0.00 | 75 | 1018.0 |
| 20260506001105 | 8 | 202 | 0.0 | 0.0 | 0.00 | 0.05 | 0.00 | 75 | 1018.0 |
| 20260506001005 | 8 | 202 | 0.0 | 0.0 | 0.00 | 0.05 | 0.00 | 75 | 1018.0 |
| 20260506000905 | 8 | 202 | 0.0 | 0.0 | 0.00 | 0.05 | 0.00 | 75 | 1018.0 |
| 20260506000805 | 8 | 202 | 0.0 | 0.0 | 0.00 | 0.05 | 0.00 | 75 | 1018.0 |
| 20260506000705 | 8 | 202 | 0.0 | 0.0 | 0.00 | 0.05 | 0.00 | 75 | 1018.0 |
| 20260506000605 | 8 | 202 | 0.0 | 0.0 | 0.00 | 0.05 | 0.00 | 75 | 1018.0 |
| 20260506000505 | 8 | 202 | 0.0 | 0.0 | 0.00 | 0.05 | 0.00 | 75 | 1018.0 |
| 20260506000405 | 8 | 202 | 0.0 | 0.0 | 0.00 | 0.05 | 0.00 | 75 | 1018.2 |
| 20260506000305 | 8 | 202 | 0.0 | 0.0 | 0.00 | 0.05 | 0.00 | 75 | 1018.2 |
| 20260506000205 | 8 | 202 | 0.0 | 0.0 | 0.00 | 0.05 | 0.00 | 75 | 1018.2 |
| 20260506000105 | 8 | 202 | 0.0 | 0.0 | 0.00 | 0.05 | 0.00 | 75 | 1018.2 |
| 20260506000005 | 8 | 202 | 0.0 | 0.0 | 0.00 | 0.05 | 0.00 | 75 | 1018.2 |
| 20260505235905 | 8 | 202 | 0.0 | 0.0 | 0.00 | 0.05 | 0.00 | 75 | 1018.2 |
| 20260505235805 | 8 | 202 | 0.0 | 0.0 | 0.00 | 0.05 | 0.00 | 75 | 1018.2 |
| 20260505235705 | 8 | 202 | 0.0 | 0.0 | 0.00 | 0.05 | 0.00 | 75 | 1018.2 |
| 20260505235605 | 8 | 202 | 0.0 | 0.0 | 0.00 | 0.05 | 0.00 | 75 | 1018.2 |
| 20260505235505 | 8 | 202 | 0.0 | 0.0 | 0.00 | 0.05 | 0.00 | 75 | 1018.4 |
| 20260505235405 | 8 | 202 | 0.0 | 0.0 | 0.00 | 0.05 | 0.00 | 75 | 1018.2 |
| 20260505235305 | 8 | 202 | 0.0 | 0.0 | 0.00 | 0.05 | 0.00 | 75 | 1018.2 |
| 20260505235205 | 8 | 202 | 0.0 | 0.0 | 0.00 | 0.05 | 0.00 | 75 | 1018.2 |
| 20260505235105 | 8 | 202 | 0.0 | 0.0 | 0.00 | 0.05 | 0.00 | 75 | 1018.2 |
| 20260505235005 | 8 | 202 | 0.0 | 0.0 | 0.00 | 0.05 | 0.00 | 75 | 1018.4 |
| 20260505234905 | 8 | 202 | 0.0 | 0.0 | 0.00 | 0.05 | 0.00 | 75 | 1018.2 |
| 20260505234805 | 8 | 202 | 0.0 | 0.0 | 0.00 | 0.05 | 0.00 | 75 | 1018.4 |
| 20260505234705 | 8 | 202 | 0.0 | 0.0 | 0.00 | 0.05 | 0.00 | 75 | 1018.2 |
| 20260505234605 | 8 | 202 | 0.0 | 0.0 | 0.00 | 0.05 | 0.00 | 75 | 1018.2 |
| 20260505234505 | 8 | 202 | 0.0 | 0.0 | 0.00 | 0.05 | 0.00 | 75 | 1018.4 |
| 20260505234405 | 8 | 202 | 0.0 | 0.0 | 0.00 | 0.05 | 0.00 | 75 | 1018.2 |
| 20260505234305 | 8 | 202 | 0.0 | 0.0 | 0.00 | 0.05 | 0.00 | 75 | 1018.2 |
| 20260505234205 | 8 | 202 | 0.0 | 0.0 | 0.00 | 0.05 | 0.00 | 74 | 1018.2 |
| 20260505234105 | 8 | 202 | 0.0 | 0.0 | 0.00 | 0.05 | 0.00 | 74 | 1018.2 |
| 20260505234005 | 8 | 202 | 0.0 | 0.0 | 0.00 | 0.05 | 0.00 | 74 | 1018.2 |
| 20260505233905 | 8 | 202 | 0.0 | 0.0 | 0.00 | 0.05 | 0.00 | 74 | 1018.2 |
| 20260505233805 | 8 | 202 | 0.0 | 0.0 | 0.00 | 0.05 | 0.00 | 74 | 1018.2 |
| 20260505233705 | 8 | 202 | 0.0 | 0.0 | 0.00 | 0.05 | 0.00 | 74 | 1018.4 |
| 20260505233605 | 8 | 202 | 0.0 | 0.0 | 0.00 | 0.05 | 0.00 | 74 | 1018.4 |
| 20260505233505 | 8 | 202 | 0.0 | 0.0 | 0.00 | 0.05 | 0.00 | 74 | 1018.4 |
| 20260505233305 | 8 | 202 | 0.0 | 0.0 | 0.00 | 0.05 | 0.00 | 74 | 1018.4 |
| 20260505233205 | 8 | 202 | 0.0 | 0.0 | 0.00 | 0.05 | 0.00 | 74 | 1018.5 |
| 20260505233105 | 8 | 202 | 0.0 | 0.0 | 0.00 | 0.05 | 0.00 | 74 | 1018.4 |
| 20260505233005 | 8 | 202 | 0.0 | 0.0 | 0.00 | 0.05 | 0.00 | 74 | 1018.4 |
| 20260505232905 | 8 | 202 | 0.0 | 0.0 | 0.00 | 0.05 | 0.00 | 74 | 1018.4 |
| 20260505232805 | 8 | 202 | 0.0 | 0.0 | 0.00 | 0.05 | 0.00 | 74 | 1018.4 |
| 20260505232705 | 8 | 202 | 0.0 | 0.0 | 0.00 | 0.05 | 0.00 | 74 | 1018.4 |
| 20260505232605 | 8 | 202 | 0.0 | 0.0 | 0.00 | 0.05 | 0.00 | 74 | 1018.4 |
| 20260505232505 | 8 | 202 | 0.0 | 0.0 | 0.00 | 0.05 | 0.00 | 74 | 1018.5 |
| 20260505232405 | 8 | 202 | 0.0 | 0.0 | 0.00 | 0.05 | 0.00 | 74 | 1018.4 |
| 20260505232305 | 8 | 202 | 0.0 | 0.0 | 0.00 | 0.05 | 0.00 | 74 | 1018.4 |
| 20260505232205 | 8 | 202 | 0.0 | 0.0 | 0.00 | 0.05 | 0.00 | 74 | 1018.4 |
| 20260505232105 | 8 | 202 | 0.0 | 0.0 | 0.00 | 0.05 | 0.00 | 74 | 1018.4 |
| 20260505232005 | 8 | 202 | 0.0 | 0.0 | 0.00 | 0.05 | 0.00 | 74 | 1018.4 |
| 20260505231905 | 8 | 202 | 0.0 | 0.0 | 0.00 | 0.05 | 0.00 | 74 | 1018.5 |
| 20260505231805 | 8 | 202 | 0.0 | 0.0 | 0.00 | 0.05 | 0.00 | 74 | 1018.5 |
| 20260505231705 | 8 | 202 | 0.0 | 0.0 | 0.00 | 0.05 | 0.00 | 74 | 1018.4 |
| 20260505231605 | 8 | 202 | 0.0 | 0.0 | 0.00 | 0.05 | 0.00 | 74 | 1018.4 |
| 20260505231505 | 8 | 202 | 0.0 | 0.0 | 0.00 | 0.05 | 0.00 | 74 | 1018.5 |
| 20260505231405 | 8 | 202 | 0.0 | 0.0 | 0.00 | 0.05 | 0.00 | 74 | 1018.4 |
| 20260505231305 | 8 | 202 | 0.0 | 0.0 | 0.00 | 0.05 | 0.00 | 74 | 1018.4 |
| 20260505231205 | 8 | 202 | 0.0 | 0.0 | 0.00 | 0.05 | 0.00 | 74 | 1018.2 |
| 20260505231105 | 8 | 202 | 0.0 | 0.0 | 0.00 | 0.05 | 0.00 | 74 | 1018.4 |
| 20260505231005 | 8 | 202 | 0.0 | 0.0 | 0.00 | 0.05 | 0.00 | 74 | 1018.5 |
| 20260505230905 | 8 | 202 | 0.0 | 0.0 | 0.00 | 0.05 | 0.00 | 74 | 1018.4 |
| 20260505230805 | 8 | 202 | 0.0 | 0.0 | 0.00 | 0.05 | 0.00 | 74 | 1018.4 |
| 20260505230705 | 8 | 202 | 0.0 | 0.0 | 0.00 | 0.05 | 0.00 | 74 | 1018.5 |
| 20260505230605 | 8 | 202 | 0.0 | 0.0 | 0.00 | 0.05 | 0.00 | 74 | 1018.5 |
| 20260505230505 | 8 | 202 | 0.0 | 0.0 | 0.00 | 0.05 | 0.00 | 74 | 1018.5 |
| 20260505230405 | 8 | 202 | 0.0 | 0.0 | 0.00 | 0.05 | 0.00 | 74 | 1018.5 |
| 20260505230305 | 8 | 202 | 0.0 | 0.0 | 0.00 | 0.05 | 0.00 | 74 | 1018.5 |
| 20260505230205 | 8 | 202 | 0.0 | 0.0 | 0.00 | 0.05 | 0.00 | 74 | 1018.4 |
| 20260505230105 | 8 | 202 | 0.0 | 0.0 | 0.00 | 0.05 | 0.00 | 74 | 1018.5 |
| 20260505230005 | 8 | 202 | 0.0 | 0.0 | 0.00 | 0.05 | 0.00 | 74 | 1018.5 |
| 20260505225905 | 8 | 202 | 0.0 | 0.0 | 0.00 | 0.05 | 0.00 | 74 | 1018.5 |
| 20260505225805 | 8 | 202 | 0.0 | 0.0 | 0.00 | 0.05 | 0.00 | 74 | 1018.5 |
| 20260505225700 | 8 | 202 | 0.0 | 0.0 | 0.00 | 0.05 | 0.00 | 74 | 1018.5 |
| 20260505225605 | 8 | 202 | 0.0 | 0.0 | 0.00 | 0.05 | 0.00 | 74 | 1018.5 |
| 20260505225505 | 8 | 202 | 0.0 | 0.0 | 0.00 | 0.05 | 0.00 | 74 | 1018.5 |
| 20260505225405 | 8 | 202 | 0.0 | 0.0 | 0.00 | 0.05 | 0.00 | 74 | 1018.5 |
| 20260505225306 | 8 | 202 | 0.0 | 0.0 | 0.00 | 0.05 | 0.00 | 74 | 1018.2 |
| 20260505225205 | 8 | 202 | 0.0 | 0.0 | 0.00 | 0.05 | 0.00 | 74 | 1018.4 |
| 20260505225105 | 8 | 202 | 0.0 | 0.0 | 0.00 | 0.05 | 0.00 | 74 | 1018.4 |
| 20260505225005 | 8 | 202 | 0.0 | 0.0 | 0.00 | 0.05 | 0.00 | 74 | 1018.4 |
| 20260505224905 | 8 | 202 | 0.0 | 0.0 | 0.00 | 0.05 | 0.00 | 74 | 1018.2 |
| 20260505224805 | 8 | 202 | 0.0 | 0.0 | 0.00 | 0.05 | 0.00 | 74 | 1018.4 |
| 20260505224705 | 8 | 202 | 0.0 | 0.0 | 0.00 | 0.05 | 0.00 | 74 | 1018.5 |
| 20260505224605 | 8 | 202 | 0.0 | 0.0 | 0.00 | 0.05 | 0.00 | 74 | 1018.5 |
| 20260505224505 | 8 | 202 | 0.0 | 0.0 | 0.00 | 0.05 | 0.00 | 74 | 1018.5 |
| 20260505224405 | 8 | 202 | 0.0 | 0.0 | 0.00 | 0.05 | 0.00 | 74 | 1018.5 |
| 20260505224305 | 8 | 202 | 0.0 | 0.0 | 0.00 | 0.05 | 0.00 | 74 | 1018.5 |
| 20260505224205 | 8 | 202 | 0.0 | 0.0 | 0.00 | 0.05 | 0.00 | 74 | 1018.5 |
| 20260505224105 | 8 | 202 | 0.0 | 0.0 | 0.00 | 0.05 | 0.00 | 74 | 1018.4 |
| 20260505224005 | 8 | 202 | 0.0 | 0.0 | 0.00 | 0.05 | 0.00 | 74 | 1018.5 |
| 20260505223905 | 8 | 202 | 0.0 | 0.0 | 0.00 | 0.05 | 0.00 | 74 | 1018.5 |
| 20260505223805 | 8 | 202 | 0.0 | 0.0 | 0.00 | 0.05 | 0.00 | 74 | 1018.5 |
| 20260505223705 | 8 | 202 | 0.0 | 0.0 | 0.00 | 0.05 | 0.00 | 74 | 1018.5 |
| 20260505223605 | 8 | 202 | 0.0 | 0.0 | 0.00 | 0.05 | 0.00 | 73 | 1018.5 |
| 20260505223505 | 8 | 202 | 0.0 | 0.0 | 0.00 | 0.05 | 0.00 | 73 | 1018.5 |
| 20260505223405 | 8 | 202 | 0.0 | 0.0 | 0.00 | 0.05 | 0.00 | 73 | 1018.5 |
| 20260505223305 | 8 | 202 | 0.0 | 0.0 | 0.00 | 0.05 | 0.00 | 73 | 1018.5 |
| 20260505223205 | 8 | 202 | 0.0 | 0.0 | 0.00 | 0.05 | 0.00 | 73 | 1018.5 |
| 20260505223105 | 8 | 202 | 0.0 | 0.0 | 0.00 | 0.05 | 0.00 | 73 | 1018.5 |
| 20260505223005 | 8 | 202 | 0.0 | 0.0 | 0.00 | 0.05 | 0.00 | 73 | 1018.5 |
| 20260505222905 | 8 | 202 | 0.0 | 0.0 | 0.00 | 0.05 | 0.00 | 73 | 1018.5 |
| 20260505222805 | 8 | 202 | 0.0 | 0.0 | 0.00 | 0.05 | 0.00 | 73 | 1018.7 |
| 20260505222705 | 8 | 202 | 0.0 | 0.0 | 0.00 | 0.05 | 0.00 | 73 | 1018.5 |
| 20260505222605 | 8 | 202 | 0.0 | 0.0 | 0.00 | 0.05 | 0.00 | 73 | 1018.7 |
| 20260505222505 | 8 | 202 | 0.0 | 0.0 | 0.00 | 0.05 | 0.00 | 73 | 1018.5 |
| 20260505222405 | 8 | 202 | 0.0 | 0.0 | 0.00 | 0.05 | 0.00 | 73 | 1018.7 |
| 20260505222306 | 8 | 202 | 0.0 | 0.0 | 0.00 | 0.05 | 0.00 | 73 | 1018.7 |
| 20260505222205 | 8 | 202 | 0.0 | 0.0 | 0.00 | 0.05 | 0.00 | 73 | 1018.5 |
| 20260505222105 | 8 | 202 | 0.0 | 0.0 | 0.00 | 0.05 | 0.00 | 73 | 1018.7 |
| 20260505222005 | 8 | 202 | 0.0 | 0.0 | 0.00 | 0.05 | 0.00 | 73 | 1018.7 |
| 20260505221905 | 8 | 202 | 0.0 | 0.0 | 0.00 | 0.05 | 0.00 | 73 | 1018.7 |
| 20260505221805 | 8 | 202 | 0.0 | 0.0 | 0.00 | 0.05 | 0.00 | 73 | 1018.5 |
| 20260505221705 | 8 | 202 | 0.0 | 0.0 | 0.00 | 0.05 | 0.00 | 73 | 1018.5 |
| 20260505221605 | 8 | 202 | 0.0 | 0.0 | 0.00 | 0.05 | 0.00 | 73 | 1018.7 |
| 20260505221505 | 8 | 202 | 0.0 | 0.0 | 0.00 | 0.05 | 0.00 | 73 | 1018.5 |
| 20260505221405 | 8 | 202 | 0.0 | 0.0 | 0.00 | 0.05 | 0.00 | 73 | 1018.7 |
| 20260505221305 | 8 | 180 | 0.0 | 0.0 | 0.00 | 0.05 | 0.00 | 73 | 1018.5 |
| 20260505221205 | 8 | 180 | 0.0 | 0.0 | 0.00 | 0.05 | 0.00 | 73 | 1018.7 |
| 20260505221105 | 8 | 180 | 0.0 | 0.0 | 0.00 | 0.05 | 0.00 | 73 | 1018.7 |
| 20260505221005 | 8 | 180 | 0.0 | 0.0 | 0.00 | 0.05 | 0.00 | 73 | 1018.7 |
| 20260505220905 | 8 | 180 | 0.0 | 0.0 | 0.00 | 0.05 | 0.00 | 73 | 1018.5 |
| 20260505220805 | 8 | 180 | 0.0 | 0.0 | 0.00 | 0.05 | 0.00 | 73 | 1018.7 |
| 20260505220705 | 8 | 180 | 0.0 | 0.0 | 0.00 | 0.05 | 0.00 | 73 | 1018.7 |
| 20260505220605 | 8 | 180 | 0.0 | 0.0 | 0.00 | 0.05 | 0.00 | 73 | 1018.7 |
| 20260505220505 | 8 | 180 | 0.0 | 0.0 | 0.00 | 0.05 | 0.00 | 73 | 1018.7 |
| 20260505220405 | 8 | 180 | 0.0 | 0.0 | 0.00 | 0.05 | 0.00 | 73 | 1018.9 |
| 20260505220305 | 8 | 180 | 0.0 | 0.0 | 0.00 | 0.05 | 0.00 | 73 | 1018.7 |
| 20260505220205 | 8 | 180 | 0.0 | 0.0 | 0.00 | 0.05 | 0.00 | 73 | 1018.7 |
| 20260505220105 | 8 | 180 | 0.0 | 0.0 | 0.00 | 0.05 | 0.00 | 73 | 1018.9 |
| 20260505220005 | 8 | 180 | 0.0 | 0.0 | 0.00 | 0.05 | 0.00 | 72 | 1018.9 |
| 20260505215905 | 8 | 180 | 0.0 | 0.0 | 0.00 | 0.05 | 0.00 | 72 | 1018.9 |
| 20260505215805 | 8 | 180 | 0.0 | 0.0 | 0.00 | 0.05 | 0.00 | 72 | 1019.0 |
| 20260505215705 | 8 | 180 | 0.0 | 0.0 | 0.00 | 0.05 | 0.00 | 72 | 1018.9 |
| 20260505215605 | 8 | 180 | 0.0 | 0.0 | 0.00 | 0.05 | 0.00 | 72 | 1019.0 |
| 20260505215505 | 8 | 180 | 0.0 | 0.0 | 0.00 | 0.05 | 0.00 | 72 | 1019.0 |
| 20260505215405 | 8 | 180 | 0.0 | 0.0 | 0.00 | 0.05 | 0.00 | 72 | 1018.9 |
| 20260505215305 | 8 | 180 | 0.0 | 0.0 | 0.00 | 0.05 | 0.00 | 72 | 1018.9 |
| 20260505215205 | 8 | 180 | 0.0 | 0.0 | 0.00 | 0.05 | 0.00 | 72 | 1018.9 |
| 20260505215105 | 8 | 180 | 0.0 | 0.0 | 0.00 | 0.05 | 0.00 | 72 | 1018.9 |
| 20260505215005 | 8 | 180 | 0.0 | 0.0 | 0.00 | 0.05 | 0.00 | 72 | 1018.9 |
| 20260505214905 | 8 | 180 | 0.0 | 0.0 | 0.00 | 0.05 | 0.00 | 72 | 1018.7 |
| 20260505214805 | 8 | 180 | 0.0 | 0.0 | 0.00 | 0.05 | 0.00 | 72 | 1018.7 |
| 20260505214705 | 8 | 180 | 0.0 | 0.0 | 0.00 | 0.05 | 0.00 | 72 | 1018.5 |
| 20260505214605 | 8 | 180 | 0.0 | 0.0 | 0.00 | 0.05 | 0.00 | 72 | 1018.7 |
| 20260505214505 | 8 | 180 | 0.0 | 0.0 | 0.00 | 0.05 | 0.00 | 72 | 1018.7 |
| 20260505214405 | 8 | 180 | 0.0 | 0.0 | 0.00 | 0.05 | 0.00 | 72 | 1018.7 |
| 20260505214305 | 8 | 180 | 0.0 | 0.0 | 0.00 | 0.05 | 0.00 | 72 | 1018.7 |
| 20260505214205 | 8 | 180 | 0.0 | 0.0 | 0.00 | 0.05 | 0.00 | 72 | 1018.7 |
| 20260505214105 | 8 | 180 | 0.0 | 0.0 | 0.00 | 0.05 | 0.00 | 72 | 1018.7 |
| 20260505214005 | 8 | 180 | 0.0 | 0.0 | 0.00 | 0.05 | 0.00 | 72 | 1018.5 |
| 20260505213905 | 8 | 180 | 0.0 | 0.0 | 0.00 | 0.05 | 0.00 | 72 | 1018.7 |
| 20260505213805 | 8 | 180 | 0.0 | 0.0 | 0.00 | 0.05 | 0.00 | 72 | 1018.7 |
| 20260505213705 | 8 | 180 | 0.0 | 0.0 | 0.00 | 0.05 | 0.00 | 72 | 1018.7 |
| 20260505213605 | 8 | 180 | 0.0 | 0.0 | 0.00 | 0.05 | 0.00 | 72 | 1018.5 |
| 20260505213505 | 8 | 180 | 0.0 | 0.0 | 0.00 | 0.05 | 0.00 | 72 | 1018.5 |
| 20260505213405 | 8 | 180 | 0.0 | 0.0 | 0.00 | 0.05 | 0.00 | 72 | 1018.7 |
| 20260505213305 | 8 | 180 | 0.0 | 0.0 | 0.00 | 0.05 | 0.00 | 72 | 1018.7 |
| 20260505213205 | 8 | 180 | 0.0 | 0.0 | 0.00 | 0.05 | 0.00 | 72 | 1018.7 |
| 20260505213105 | 8 | 180 | 0.0 | 0.0 | 0.00 | 0.05 | 0.00 | 72 | 1018.7 |
| 20260505213005 | 8 | 180 | 0.0 | 0.0 | 0.00 | 0.05 | 0.00 | 72 | 1018.7 |
| 20260505212905 | 8 | 180 | 0.0 | 0.0 | 0.00 | 0.05 | 0.00 | 72 | 1018.7 |
| 20260505212805 | 8 | 180 | 0.0 | 0.0 | 0.00 | 0.05 | 0.00 | 71 | 1018.7 |
| 20260505212705 | 8 | 180 | 0.0 | 0.0 | 0.00 | 0.05 | 0.00 | 71 | 1018.7 |
| 20260505212605 | 8 | 180 | 0.0 | 0.0 | 0.00 | 0.05 | 0.00 | 71 | 1018.7 |
| 20260505212505 | 8 | 180 | 0.0 | 0.0 | 0.00 | 0.05 | 0.00 | 71 | 1018.7 |
| 20260505212405 | 8 | 180 | 0.0 | 0.0 | 0.00 | 0.05 | 0.00 | 71 | 1018.7 |
| 20260505212306 | 8 | 180 | 0.0 | 0.0 | 0.00 | 0.05 | 0.00 | 71 | 1018.7 |
| 20260505212205 | 8 | 180 | 0.0 | 0.0 | 0.00 | 0.05 | 0.00 | 71 | 1018.9 |
| 20260505212105 | 8 | 180 | 0.0 | 0.0 | 0.00 | 0.05 | 0.00 | 71 | 1018.9 |
| 20260505212005 | 8 | 180 | 0.0 | 0.0 | 0.00 | 0.05 | 0.00 | 71 | 1018.7 |
| 20260505211905 | 8 | 180 | 0.0 | 0.0 | 0.00 | 0.05 | 0.00 | 71 | 1018.7 |
| 20260505211805 | 9 | 180 | 0.0 | 0.0 | 0.00 | 0.05 | 0.00 | 71 | 1018.7 |
| 20260505211705 | 9 | 180 | 0.0 | 0.0 | 0.00 | 0.05 | 0.00 | 71 | 1018.7 |
| 20260505211605 | 9 | 180 | 0.0 | 0.0 | 0.00 | 0.05 | 0.00 | 71 | 1018.7 |
| 20260505211505 | 9 | 180 | 0.0 | 0.0 | 0.00 | 0.05 | 0.00 | 71 | 1018.9 |
| 20260505211405 | 9 | 180 | 0.0 | 0.0 | 0.00 | 0.05 | 0.00 | 71 | 1018.7 |
| 20260505211305 | 9 | 180 | 0.0 | 0.0 | 0.00 | 0.05 | 0.00 | 71 | 1018.7 |
| 20260505211205 | 9 | 180 | 0.0 | 0.0 | 0.00 | 0.05 | 0.00 | 71 | 1018.9 |
| 20260505211105 | 9 | 180 | 0.0 | 0.0 | 0.00 | 0.05 | 0.00 | 71 | 1019.0 |
| 20260505211005 | 9 | 180 | 0.0 | 0.0 | 0.00 | 0.05 | 0.00 | 71 | 1018.9 |
| 20260505210905 | 9 | 180 | 0.0 | 0.0 | 0.00 | 0.05 | 0.00 | 71 | 1018.7 |
| 20260505210805 | 9 | 180 | 0.0 | 0.0 | 0.00 | 0.05 | 0.00 | 71 | 1018.9 |
| 20260505210705 | 9 | 180 | 0.0 | 0.0 | 0.00 | 0.05 | 0.00 | 71 | 1018.7 |
| 20260505210605 | 9 | 180 | 0.0 | 0.0 | 0.00 | 0.05 | 0.00 | 71 | 1018.7 |
| 20260505210505 | 9 | 180 | 0.0 | 0.0 | 0.00 | 0.05 | 0.00 | 71 | 1018.9 |
| 20260505210405 | 9 | 180 | 0.0 | 0.0 | 0.00 | 0.05 | 0.00 | 71 | 1018.7 |
| 20260505210305 | 9 | 180 | 0.0 | 0.0 | 0.00 | 0.05 | 0.00 | 71 | 1018.7 |
| 20260505210205 | 9 | 180 | 0.0 | 0.0 | 0.00 | 0.05 | 0.00 | 71 | 1019.0 |
| 20260505210105 | 9 | 180 | 0.0 | 0.0 | 0.00 | 0.05 | 0.00 | 71 | 1019.0 |
| 20260505210005 | 9 | 180 | 0.0 | 0.0 | 0.00 | 0.05 | 0.00 | 71 | 1018.9 |
| 20260505205905 | 9 | 180 | 0.0 | 0.0 | 0.00 | 0.05 | 0.00 | 71 | 1019.0 |
| 20260505205805 | 9 | 180 | 0.0 | 0.0 | 0.00 | 0.05 | 0.00 | 71 | 1018.9 |
| 20260505205705 | 9 | 180 | 0.0 | 0.0 | 0.00 | 0.05 | 0.00 | 71 | 1018.9 |
| 20260505205605 | 9 | 180 | 0.0 | 0.0 | 0.00 | 0.05 | 0.00 | 71 | 1018.9 |
| 20260505205505 | 9 | 180 | 0.0 | 0.0 | 0.00 | 0.05 | 0.00 | 71 | 1019.0 |
| 20260505205405 | 9 | 180 | 0.0 | 0.0 | 0.00 | 0.05 | 0.00 | 71 | 1019.0 |
| 20260505205305 | 9 | 180 | 0.0 | 0.0 | 0.00 | 0.05 | 0.00 | 70 | 1019.0 |
| 20260505205205 | 9 | 180 | 0.0 | 0.0 | 0.00 | 0.05 | 0.00 | 70 | 1019.0 |
| 20260505205105 | 10 | 180 | 0.0 | 0.0 | 0.00 | 0.05 | 0.00 | 70 | 1019.0 |
| 20260505205005 | 10 | 180 | 0.0 | 0.0 | 0.00 | 0.05 | 0.00 | 70 | 1019.0 |
| 20260505204905 | 10 | 180 | 0.0 | 0.0 | 0.00 | 0.05 | 0.00 | 70 | 1019.0 |
| 20260505204805 | 10 | 180 | 0.0 | 0.0 | 0.00 | 0.05 | 0.00 | 70 | 1019.0 |
| 20260505204705 | 10 | 180 | 0.0 | 0.0 | 0.00 | 0.05 | 0.00 | 70 | 1019.0 |
| 20260505204605 | 10 | 180 | 0.0 | 0.0 | 0.00 | 0.05 | 0.00 | 70 | 1019.0 |
| 20260505204505 | 10 | 180 | 0.0 | 0.0 | 0.00 | 0.05 | 0.00 | 70 | 1019.0 |
| 20260505204405 | 10 | 180 | 0.0 | 0.0 | 0.00 | 0.05 | 0.00 | 70 | 1019.0 |
| 20260505204305 | 10 | 180 | 0.0 | 0.0 | 0.00 | 0.05 | 0.00 | 70 | 1019.0 |
| 20260505204205 | 10 | 180 | 0.0 | 0.0 | 0.00 | 0.05 | 0.00 | 70 | 1019.0 |
| 20260505204105 | 10 | 180 | 0.0 | 0.0 | 0.00 | 0.05 | 0.00 | 70 | 1018.9 |
| 20260505204005 | 10 | 180 | 0.0 | 0.0 | 0.00 | 0.05 | 0.00 | 70 | 1018.9 |
| 20260505203905 | 10 | 180 | 0.0 | 0.0 | 0.00 | 0.05 | 0.00 | 70 | 1018.9 |
| 20260505203805 | 10 | 180 | 0.0 | 0.0 | 0.00 | 0.05 | 0.00 | 70 | 1018.9 |
| 20260505203705 | 10 | 180 | 0.0 | 0.0 | 0.00 | 0.05 | 0.00 | 70 | 1018.9 |
| 20260505203605 | 10 | 180 | 0.0 | 0.0 | 0.00 | 0.05 | 0.00 | 70 | 1019.0 |
| 20260505203505 | 10 | 180 | 0.0 | 0.0 | 0.00 | 0.05 | 0.00 | 70 | 1019.0 |
| 20260505203405 | 10 | 180 | 0.0 | 0.0 | 0.00 | 0.05 | 0.00 | 69 | 1018.9 |
| 20260505203305 | 10 | 180 | 0.0 | 0.0 | 0.00 | 0.05 | 0.00 | 69 | 1018.9 |
| 20260505203205 | 10 | 180 | 0.0 | 0.0 | 0.00 | 0.05 | 0.00 | 69 | 1018.9 |
| 20260505203105 | 10 | 180 | 0.0 | 0.0 | 0.00 | 0.05 | 0.00 | 69 | 1018.9 |
| 20260505203005 | 10 | 180 | 0.0 | 0.0 | 0.00 | 0.05 | 0.00 | 69 | 1018.7 |
| 20260505202905 | 10 | 180 | 0.0 | 0.0 | 0.00 | 0.05 | 0.00 | 69 | 1018.9 |
| 20260505202805 | 10 | 180 | 0.0 | 0.0 | 0.00 | 0.05 | 0.00 | 69 | 1018.9 |
| 20260505202705 | 10 | 180 | 0.0 | 0.0 | 0.00 | 0.05 | 0.00 | 69 | 1019.0 |
| 20260505202605 | 10 | 180 | 0.0 | 0.0 | 0.00 | 0.05 | 0.00 | 69 | 1019.0 |
| 20260505202505 | 10 | 180 | 0.0 | 0.0 | 0.00 | 0.05 | 0.00 | 69 | 1018.9 |
| 20260505202405 | 10 | 180 | 0.0 | 0.0 | 0.00 | 0.05 | 0.00 | 69 | 1018.9 |
| 20260505202306 | 10 | 180 | 0.0 | 0.0 | 0.00 | 0.05 | 0.00 | 69 | 1018.9 |
| 20260505202205 | 10 | 180 | 0.0 | 0.0 | 0.00 | 0.05 | 0.00 | 69 | 1018.9 |
| 20260505202105 | 10 | 180 | 0.0 | 0.0 | 0.00 | 0.05 | 0.00 | 69 | 1018.9 |
| 20260505202005 | 10 | 180 | 0.0 | 0.0 | 0.00 | 0.05 | 0.00 | 69 | 1018.9 |
| 20260505201905 | 10 | 180 | 0.0 | 0.0 | 0.00 | 0.05 | 0.00 | 69 | 1018.9 |
| 20260505201805 | 10 | 180 | 0.0 | 0.0 | 0.00 | 0.05 | 0.00 | 69 | 1018.7 |
| 20260505201705 | 10 | 180 | 0.0 | 0.0 | 0.00 | 0.05 | 0.00 | 69 | 1018.9 |
| 20260505201605 | 10 | 180 | 0.0 | 0.0 | 0.00 | 0.05 | 0.00 | 69 | 1018.7 |
| 20260505201505 | 10 | 180 | 0.0 | 0.0 | 0.00 | 0.05 | 0.00 | 69 | 1018.9 |
| 20260505201405 | 10 | 180 | 0.0 | 0.0 | 0.00 | 0.05 | 0.00 | 69 | 1018.9 |
| 20260505201305 | 10 | 180 | 0.0 | 0.0 | 0.00 | 0.05 | 0.00 | 69 | 1018.7 |
| 20260505201200 | 10 | 180 | 0.0 | 0.0 | 0.00 | 0.05 | 0.00 | 69 | 1018.7 |
| 20260505201105 | 10 | 180 | 0.0 | 0.0 | 0.00 | 0.05 | 0.00 | 69 | 1018.7 |
| 20260505201005 | 10 | 180 | 0.0 | 0.0 | 0.00 | 0.05 | 0.00 | 69 | 1018.7 |
| 20260505200905 | 10 | 180 | 0.0 | 0.0 | 0.00 | 0.05 | 0.00 | 69 | 1018.7 |
| 20260505200805 | 11 | 180 | 0.0 | 0.0 | 0.00 | 0.05 | 0.00 | 69 | 1018.7 |
| 20260505200705 | 11 | 180 | 0.0 | 0.0 | 0.00 | 0.05 | 0.00 | 69 | 1018.7 |
| 20260505200605 | 11 | 180 | 0.0 | 0.0 | 0.00 | 0.05 | 0.00 | 69 | 1018.7 |
| 20260505200505 | 11 | 180 | 0.0 | 0.0 | 0.00 | 0.05 | 0.00 | 69 | 1018.7 |
| 20260505200405 | 11 | 180 | 0.0 | 0.0 | 0.00 | 0.05 | 0.00 | 69 | 1018.9 |
| 20260505200305 | 11 | 180 | 0.0 | 0.0 | 0.00 | 0.05 | 0.00 | 69 | 1018.5 |
| 20260505200205 | 11 | 180 | 0.0 | 0.0 | 0.00 | 0.05 | 0.00 | 69 | 1018.5 |
| 20260505200105 | 11 | 180 | 0.0 | 0.0 | 0.00 | 0.05 | 0.00 | 69 | 1018.5 |
| 20260505200005 | 11 | 180 | 0.0 | 0.0 | 0.00 | 0.05 | 0.00 | 69 | 1018.5 |
| 20260505195905 | 11 | 180 | 0.0 | 0.0 | 0.00 | 0.05 | 0.00 | 68 | 1018.7 |
| 20260505195805 | 11 | 180 | 0.0 | 0.0 | 0.00 | 0.05 | 0.00 | 68 | 1018.5 |
| 20260505195705 | 11 | 180 | 0.0 | 0.0 | 0.00 | 0.05 | 0.00 | 68 | 1018.5 |
| 20260505195605 | 11 | 180 | 0.0 | 0.0 | 0.00 | 0.05 | 0.00 | 68 | 1018.5 |
| 20260505195505 | 11 | 180 | 0.0 | 0.0 | 0.00 | 0.05 | 0.00 | 68 | 1018.5 |
| 20260505195405 | 11 | 180 | 0.0 | 0.0 | 0.00 | 0.05 | 0.00 | 68 | 1018.5 |
| 20260505195305 | 11 | 180 | 0.0 | 0.0 | 0.00 | 0.05 | 0.00 | 68 | 1018.5 |
| 20260505195205 | 11 | 180 | 0.0 | 0.0 | 0.00 | 0.05 | 0.00 | 68 | 1018.5 |
| 20260505195105 | 11 | 180 | 0.0 | 0.0 | 0.00 | 0.05 | 0.00 | 68 | 1018.4 |
| 20260505195005 | 11 | 180 | 0.0 | 0.0 | 0.00 | 0.05 | 0.00 | 68 | 1018.5 |
| 20260505194905 | 11 | 180 | 0.0 | 0.0 | 0.00 | 0.05 | 0.00 | 68 | 1018.5 |
| 20260505194805 | 11 | 180 | 0.0 | 0.0 | 0.00 | 0.05 | 0.00 | 68 | 1018.5 |
| 20260505194705 | 11 | 180 | 0.0 | 0.0 | 0.00 | 0.05 | 0.00 | 68 | 1018.5 |
| 20260505194605 | 11 | 180 | 0.0 | 0.0 | 0.00 | 0.05 | 0.00 | 68 | 1018.5 |
| 20260505194505 | 11 | 180 | 0.0 | 0.0 | 0.00 | 0.05 | 0.00 | 68 | 1018.5 |
| 20260505194405 | 11 | 180 | 0.0 | 0.0 | 0.00 | 0.05 | 0.00 | 67 | 1018.5 |
| 20260505194305 | 11 | 180 | 0.0 | 0.0 | 0.00 | 0.05 | 0.00 | 68 | 1018.5 |
| 20260505194205 | 11 | 180 | 0.0 | 0.0 | 0.00 | 0.05 | 0.00 | 68 | 1018.5 |
| 20260505194105 | 11 | 180 | 0.0 | 0.0 | 0.00 | 0.05 | 0.00 | 68 | 1018.5 |
| 20260505194005 | 11 | 180 | 0.0 | 0.0 | 0.00 | 0.05 | 0.00 | 68 | 1018.5 |
| 20260505193905 | 11 | 180 | 0.0 | 0.0 | 0.00 | 0.05 | 0.00 | 68 | 1018.5 |
| 20260505193805 | 11 | 180 | 0.0 | 0.0 | 0.00 | 0.05 | 0.00 | 68 | 1018.5 |
| 20260505193705 | 11 | 202 | 0.0 | 0.0 | 0.00 | 0.05 | 0.00 | 68 | 1018.5 |
| 20260505193605 | 11 | 202 | 0.0 | 0.0 | 0.00 | 0.05 | 0.00 | 67 | 1018.4 |
| 20260505193505 | 11 | 202 | 0.0 | 0.0 | 0.00 | 0.05 | 0.00 | 67 | 1018.5 |
| 20260505193405 | 11 | 202 | 0.0 | 0.0 | 0.00 | 0.05 | 0.00 | 67 | 1018.5 |
| 20260505193305 | 11 | 202 | 0.0 | 0.0 | 0.00 | 0.05 | 0.00 | 67 | 1018.4 |
| 20260505193205 | 11 | 202 | 0.0 | 0.0 | 0.00 | 0.05 | 0.00 | 67 | 1018.4 |
| 20260505193105 | 11 | 202 | 0.0 | 0.0 | 0.00 | 0.05 | 0.00 | 67 | 1018.4 |
| 20260505193005 | 11 | 202 | 0.0 | 0.0 | 0.00 | 0.05 | 0.00 | 67 | 1018.4 |
| 20260505192905 | 11 | 202 | 0.0 | 0.0 | 0.00 | 0.05 | 0.00 | 67 | 1018.4 |
| 20260505192805 | 11 | 202 | 0.0 | 0.0 | 0.00 | 0.05 | 0.00 | 67 | 1018.7 |
| 20260505192705 | 11 | 202 | 0.0 | 0.0 | 0.00 | 0.05 | 0.00 | 67 | 1018.5 |
| 20260505192605 | 12 | 202 | 0.0 | 0.0 | 0.00 | 0.05 | 0.00 | 67 | 1018.5 |
| 20260505192505 | 12 | 202 | 0.0 | 0.0 | 0.00 | 0.05 | 0.00 | 67 | 1018.5 |
| 20260505192405 | 12 | 202 | 0.0 | 0.0 | 0.00 | 0.05 | 0.00 | 67 | 1018.5 |
| 20260505192306 | 12 | 202 | 0.0 | 0.0 | 0.00 | 0.05 | 0.00 | 67 | 1018.5 |
| 20260505192205 | 12 | 202 | 0.0 | 0.0 | 0.00 | 0.05 | 0.00 | 67 | 1018.5 |
| 20260505192105 | 12 | 202 | 0.0 | 0.0 | 0.00 | 0.05 | 0.00 | 67 | 1018.5 |
| 20260505192005 | 12 | 202 | 0.0 | 0.0 | 0.00 | 0.05 | 0.00 | 66 | 1018.5 |
| 20260505191905 | 12 | 202 | 0.0 | 0.0 | 0.00 | 0.05 | 0.00 | 66 | 1018.4 |
| 20260505191805 | 12 | 202 | 0.0 | 0.0 | 0.00 | 0.05 | 0.00 | 66 | 1018.5 |
| 20260505191705 | 12 | 202 | 0.0 | 0.0 | 0.00 | 0.05 | 0.00 | 66 | 1018.5 |
| 20260505191605 | 12 | 202 | 0.0 | 0.0 | 0.00 | 0.05 | 0.00 | 66 | 1018.5 |
| 20260505191505 | 12 | 202 | 0.0 | 0.0 | 0.00 | 0.05 | 0.00 | 66 | 1018.5 |
| 20260505191405 | 12 | 202 | 0.0 | 0.0 | 0.00 | 0.05 | 0.00 | 66 | 1018.5 |
| 20260505191305 | 12 | 202 | 0.0 | 0.0 | 0.00 | 0.05 | 0.00 | 66 | 1018.4 |
| 20260505191205 | 12 | 202 | 0.0 | 0.0 | 0.00 | 0.05 | 0.00 | 66 | 1018.5 |
| 20260505191105 | 12 | 202 | 0.0 | 0.0 | 0.00 | 0.05 | 0.00 | 66 | 1018.4 |
| 20260505191005 | 12 | 202 | 0.0 | 0.0 | 0.00 | 0.05 | 0.00 | 66 | 1018.2 |
| 20260505190905 | 12 | 202 | 0.0 | 0.0 | 0.00 | 0.05 | 0.00 | 66 | 1018.2 |
| 20260505190805 | 12 | 202 | 0.0 | 0.0 | 0.00 | 0.05 | 0.00 | 66 | 1018.2 |
| 20260505190705 | 12 | 202 | 0.0 | 0.0 | 0.00 | 0.05 | 0.00 | 66 | 1018.2 |
| 20260505190605 | 12 | 202 | 0.0 | 0.0 | 0.00 | 0.05 | 0.00 | 65 | 1018.2 |
| 20260505190505 | 12 | 202 | 0.0 | 0.0 | 0.00 | 0.05 | 0.00 | 65 | 1018.2 |
| 20260505190405 | 12 | 202 | 0.0 | 0.0 | 0.00 | 0.05 | 0.00 | 66 | 1018.0 |
| 20260505190305 | 12 | 202 | 0.0 | 0.0 | 0.00 | 0.05 | 0.00 | 66 | 1018.0 |
| 20260505190205 | 12 | 202 | 0.0 | 0.0 | 0.00 | 0.05 | 0.00 | 66 | 1018.0 |
| 20260505190105 | 12 | 202 | 0.0 | 0.0 | 0.00 | 0.05 | 0.00 | 66 | 1018.2 |
| 20260505190005 | 12 | 202 | 0.0 | 0.0 | 0.00 | 0.05 | 0.00 | 66 | 1018.2 |
| 20260505185904 | 12 | 202 | 0.0 | 0.0 | 0.00 | 0.05 | 0.00 | 66 | 1018.2 |
| 20260505185805 | 12 | 202 | 0.0 | 0.0 | 0.00 | 0.05 | 0.00 | 66 | 1018.2 |
| 20260505185704 | 12 | 202 | 0.0 | 0.0 | 0.00 | 0.05 | 0.00 | 65 | 1018.0 |
| 20260505185605 | 12 | 202 | 0.0 | 0.0 | 0.00 | 0.05 | 0.00 | 65 | 1018.0 |
| 20260505185505 | 12 | 202 | 0.0 | 0.0 | 0.00 | 0.05 | 0.00 | 65 | 1018.2 |
| 20260505185405 | 12 | 202 | 0.0 | 0.0 | 0.00 | 0.05 | 0.00 | 65 | 1018.4 |